Course Search

Watch these short videos to help you get registered for classes or contact Student Services for assistance: studentservices@nwicc.edu or 800-352-4907!


Use the below form to search our courses. By clicking the table headings, you can sort the courses alphabetically/numerically by that column.


Refresh Full Course Schedule
PDF
Term Department Section Number Section Name Credits Section Title Days Location Start Date End Date Start Time End Time Instructor Book Info
2020SU Social Science 70012 PSY-121 3 Developmental Psychology Online 5/26/2020 7/20/2020
2020SU Humanities 70013 GEO-121 3 World Regional Geography Online 5/26/2020 7/20/2020
2020SU Social Science 70014 PSY-251 3 Social Psychology Online 5/26/2020 7/20/2020
2020SU Science 70015 BIO-168 4 Human Anatomy & Physiology I Online 5/26/2020 7/20/2020
2020SU Science 70016 BIO-173 4 Human Anatomy & Physiology II Online 5/26/2020 7/20/2020
2020SU Communications 70018 SPC-112 3 Public Speaking Online 5/26/2020 7/20/2020
2020SU Social Science 70019 PSY-223 3 Child & Adolescent Psychology Online 5/26/2020 7/20/2020
2020SU Science 70021 BIO-151 3 Nutrition Online 5/26/2020 7/20/2020
2020SU Social Science 70022 ECN-120 3 Principles of Macroeconomics Online 5/26/2020 7/20/2020
2020SU Social Science 70023 ECN-130 3 Principles of Microeconomics Online 5/26/2020 7/20/2020
2020SU Science 70024 BIO-186 4 Microbiology Online 5/26/2020 7/20/2020
2020SU Social Science 70025 CRJ-130 3 Criminal Law Online 5/26/2020 7/20/2020
2020SU Mathematics 70027 MAT-054 3 Math Strategies Online 5/26/2020 7/20/2020
2020SU Mathematics 70028 MAT-102 4 Intermediate Algebra Online 5/26/2020 7/20/2020
2020SU Mathematics 70029 MAT-104 3 Applied Math Topics Online 5/26/2020 7/20/2020
2020SU Mathematics 70030 MAT-110 3 Math for Liberal Arts Online 5/26/2020 7/20/2020
2020SU Mathematics 70031 MAT-121 4 College Algebra Online 5/26/2020 7/20/2020
2020SU Mathematics 70032 MAT-140 3 Finite Math Online 5/26/2020 7/20/2020
2020SU Mathematics 70033 MAT-156 3 Statistics Online 5/26/2020 7/20/2020
2020SU Mathematics 70035 MAT-772 3 Applied Math Online 5/26/2020 7/20/2020
2020SU Business 70036 MGT-130 3 Principles of Supervision Online 5/26/2020 7/20/2020
2020SU Science 70037 PHS-113 4 Introduction to Physical Scien Online 5/26/2020 7/20/2020
2020SU Humanities 70039 ART-186 3 Digital Photography Online 5/26/2020 7/20/2020
2020SU Business 70041 ACC-111 3 Intro to Accounting Online 5/26/2020 7/20/2020
2020SU Business 70042 ACC-121 3 Principles of Accounting I Online 5/26/2020 7/20/2020
2020SU Business 70043 ACC-131 4 Principles of Accounting I Online 5/26/2020 7/20/2020
2020SU Business 70044 ACC-132 4 Principles of Accounting II Online 5/26/2020 7/20/2020
2020SU Business 70045 ACC-142 3 Financial Accounting Online 5/26/2020 7/20/2020
2020SU Business 70046 ACC-146 3 Managerial Accounting Online 5/26/2020 7/20/2020
2020SU Business 70047 ACC-161 3 Payroll Accounting Online 5/26/2020 7/20/2020
2020SU Business 70048 ACC-221 3 Cost Accounting Online 5/26/2020 7/20/2020
2020SU Business 70049 ACC-237 4 Intermediate Accounting I Online 5/26/2020 7/20/2020
2020SU Business 70050 ACC-265 4 Income Tax Accounting Online 5/26/2020 7/20/2020
2020SU Business 70051 ACC-311 3 Computer Accounting Online 5/26/2020 7/20/2020
2020SU Business 70054 ADM-105 1 Intro to Keyboarding Online 5/26/2020 7/20/2020
2020SU Business 70055 ADM-122 3 Document Formatting Online 5/26/2020 7/20/2020
2020SU Humanities 70096 ART-124 3 Computer Art Online 5/26/2020 7/20/2020
2020SU Science 70098 BIO-105 4 Introductory Biology Online 5/26/2020 7/20/2020
2020SU Science 70099 BIO-114 4 General Biology IA Online 5/26/2020 7/20/2020
2020SU Science 70100 BIO-115 4 General Biology IIA Online 5/26/2020 7/20/2020
2020SU Science 70101 BIO-125 4 Plant Biology Online 5/26/2020 7/20/2020
2020SU Science 70103 BIO-146 3 Genetics Online 5/26/2020 7/20/2020
2020SU Science 70104 BIO-157 4 Human Biology Online 5/26/2020 7/20/2020
2020SU Science 70105 BIO-162 3 Essentials of Anatomy & Phys Online 5/26/2020 7/20/2020
2020SU Science 70106 BIO-163 4 Essentials of Anatomy and Phys Online 5/26/2020 7/20/2020
2020SU Business 70107 BUS-102 3 Introduction to Business Online 5/26/2020 7/20/2020
2020SU Business 70108 BUS-106 2 Employment Strategies Online 5/26/2020 7/20/2020
2020SU Business 70109 BUS-110 3 Business Math & Calculators Online 5/26/2020 7/20/2020
2020SU Communications 70110 BUS-121 3 Business Communications Online 5/26/2020 7/20/2020
2020SU Business 70113 BUS-150 3 E-Commerce Online 5/26/2020 7/20/2020

Course Search

Term Department Section Number Section Name Credits Section Title Days Location Start Date End Date Start Time End Time Instructor
2020SU Emergency Services 68510 EMS-211 6.5 Emergency Medical Technician Other 5/20/2020 7/17/2020 Miller, Kevin; Johnson, Jared
2020SU Health 69691 HSC-172 3 Nurse Aid M W TH On-Campus 6/1/2020 6/25/2020 7:00AM 2:00PM Paulsen, Julie
2020SU Health 69692 HSC-172 3 Nurse Aid M T TH On-Campus 7/2/2020 7/28/2020 7:00AM 2:00PM Paulsen, Julie
2020FA Health 69693 HSC-172 3 Nurse Aid M T W TH F Other 8/3/2020 8/14/2020 7:00AM 4:30PM Paulsen, Julie
2020SU Education 69932 ECE-103 3 Intro to Early Childhood Ed Online 5/26/2020 7/20/2020
2020SU Social Science 69933 POL-111 3 American National Government Online 5/26/2020 7/20/2020
2020SU Communications 69934 ENG-105 3 Composition I Online 5/26/2020 7/20/2020
2020SU Business 69935 MKT-110 3 Principles of Marketing Online 5/26/2020 7/20/2020
2020SU Social Science 69936 SOC-110 3 Introduction to Sociology Online 5/26/2020 7/20/2020
2020SU Health 69937 HSC-106 3 Contemporary Health Issues Online 5/26/2020 7/20/2020
2020SU General Arts & Science 69938 PEH-109 1 Personal Wellness Online 5/26/2020 7/20/2020
2020SU Communications 69939 ENG-106 3 Composition II Online 5/26/2020 7/20/2020
2020SU Humanities 69940 MUS-205 3 Jazz History & Appreciation Online 5/26/2020 7/20/2020
2020SU Humanities 69941 LIT-185 3 Contemporary Literature Online 5/26/2020 7/20/2020
2020SU Humanities 69942 ANT-105 3 Cultural Anthropology Online 5/26/2020 7/20/2020
2020SU Humanities 69943 ART-120 3 2-D Design Online 5/26/2020 7/20/2020
2020SU Humanities 69944 DRA-101 3 Introduction to Theatre Online 5/26/2020 7/20/2020
2020SU Coaching 69945 PEH-111 3 Personal Wellness Online 5/26/2020 7/20/2020
2020SU Communications 69946 SPC-101 3 Fund. of Oral Communication Online 5/26/2020 7/20/2020
2020SU Humanities 69947 HIS-110 3 West. Civ: Ancient to Erly Mod Online 5/26/2020 7/20/2020
2020SU Humanities 69948 HIS-111 3 Western Civ: Early Mod to Pres Online 5/26/2020 7/20/2020
2020SU Humanities 69949 HIS-117 3 Western Civ 1: Anc & Medieval Online 5/26/2020 7/20/2020
2020SU Humanities 69950 HIS-118 3 Western Civ II: Early Modern Online 5/26/2020 7/20/2020
2020SU Humanities 69953 HIS-119 3 Western Civ Iii: Modern Period Online 5/26/2020 7/20/2020
2020SU Social Science 69955 HIS-257 3 African American History Online 5/26/2020 7/20/2020
2020SU Humanities 69956 REL-101 3 Survey of World Religions Online 5/26/2020 7/20/2020
2020SU Social Science 69957 CRJ-141 3 Criminal Investigation Online 5/26/2020 7/20/2020
2020SU Humanities 69966 ART-203 3 Art History I Online 5/26/2020 7/20/2020
2020SU Social Science 69967 PSY-102 3 Human and Work Relations Online 5/26/2020 7/20/2020
2020SU Humanities 69968 GEO-126 3 Cultural Geography Online 5/26/2020 7/20/2020
2020SU Science 69969 PHS-185 3 Intro to Earth Science Online 5/26/2020 7/20/2020
2020SU Business 69970 BUS-161 3 Human Relations Online 5/26/2020 7/20/2020
2020SU Social Science 69971 CRJ-100 3 Intro to Criminal Justice Online 5/26/2020 7/20/2020
2020SU Humanities 69972 DRA-110 3 Introduction to Film Online 5/26/2020 7/20/2020
2020SU Social Science 69973 ECN-110 3 Introduction to Economics Online 5/26/2020 7/20/2020
2020SU Humanities 69974 FLF-141 4 Elementary French I Online 5/26/2020 7/20/2020
2020SU Humanities 69976 HUM-137 3 Humanities of the Modern World Online 5/26/2020 7/20/2020
2020SU Business 69977 MGT-101 3 Principles of Management Online 5/26/2020 7/20/2020
2020SU Business 69978 MGT-178 3 Employment Law Online 5/26/2020 7/20/2020
2020SU Humanities 69979 MMS-101 3 Mass Media Online 5/26/2020 7/20/2020
2020SU Humanities 69980 MUS-100 3 Music Appreciation Online 5/26/2020 7/20/2020
2020SU Humanities 69981 REL-150 3 Introduction to the Bible Online 5/26/2020 7/20/2020
2020SU Business 69983 BUS-130 3 Intro to Entrepreneurship Online 5/26/2020 7/20/2020
2020SU Social Science 69984 PSY-111 3 Introduction to Psychology Online 5/26/2020 7/20/2020
2020SU Humanities 69985 ART-101 3 Art Appreciation Online 5/26/2020 7/20/2020
2020SU Humanities 69987 ART-204 3 Art History II Online 5/26/2020 7/20/2020
2020SU Mathematics 69989 MAT-117 3 Math for Elementary Teachers Online 5/26/2020 7/20/2020
2020SU Social Science 70009 PSY-241 3 Abnormal Psychology Online 5/26/2020 7/20/2020
2020SU Social Science 70010 POL-112 3 American State and Local Gov Online 5/26/2020 7/20/2020
2020SU Business 70011 MKT-150 3 Principles of Advertising Online 5/26/2020 7/20/2020
2020SU Social Science 70012 PSY-121 3 Developmental Psychology Online 5/26/2020 7/20/2020
2020SU Humanities 70013 GEO-121 3 World Regional Geography Online 5/26/2020 7/20/2020
2020SU Social Science 70014 PSY-251 3 Social Psychology Online 5/26/2020 7/20/2020
2020SU Science 70015 BIO-168 4 Human Anatomy & Physiology I Online 5/26/2020 7/20/2020
2020SU Science 70016 BIO-173 4 Human Anatomy & Physiology II Online 5/26/2020 7/20/2020
2020SU Communications 70018 SPC-112 3 Public Speaking Online 5/26/2020 7/20/2020
2020SU Social Science 70019 PSY-223 3 Child & Adolescent Psychology Online 5/26/2020 7/20/2020
2020SU Science 70021 BIO-151 3 Nutrition Online 5/26/2020 7/20/2020
2020SU Social Science 70022 ECN-120 3 Principles of Macroeconomics Online 5/26/2020 7/20/2020
2020SU Social Science 70023 ECN-130 3 Principles of Microeconomics Online 5/26/2020 7/20/2020
2020SU Science 70024 BIO-186 4 Microbiology Online 5/26/2020 7/20/2020
2020SU Social Science 70025 CRJ-130 3 Criminal Law Online 5/26/2020 7/20/2020
2020SU Mathematics 70027 MAT-054 3 Math Strategies Online 5/26/2020 7/20/2020
2020SU Mathematics 70028 MAT-102 4 Intermediate Algebra Online 5/26/2020 7/20/2020
2020SU Mathematics 70029 MAT-104 3 Applied Math Topics Online 5/26/2020 7/20/2020
2020SU Mathematics 70030 MAT-110 3 Math for Liberal Arts Online 5/26/2020 7/20/2020
2020SU Mathematics 70031 MAT-121 4 College Algebra Online 5/26/2020 7/20/2020
2020SU Mathematics 70032 MAT-140 3 Finite Math Online 5/26/2020 7/20/2020
2020SU Mathematics 70033 MAT-156 3 Statistics Online 5/26/2020 7/20/2020
2020SU Mathematics 70035 MAT-772 3 Applied Math Online 5/26/2020 7/20/2020
2020SU Business 70036 MGT-130 3 Principles of Supervision Online 5/26/2020 7/20/2020
2020SU Science 70037 PHS-113 4 Introduction to Physical Scien Online 5/26/2020 7/20/2020
2020SU Humanities 70039 ART-186 3 Digital Photography Online 5/26/2020 7/20/2020
2020SU Business 70041 ACC-111 3 Intro to Accounting Online 5/26/2020 7/20/2020
2020SU Business 70042 ACC-121 3 Principles of Accounting I Online 5/26/2020 7/20/2020
2020SU Business 70043 ACC-131 4 Principles of Accounting I Online 5/26/2020 7/20/2020
2020SU Business 70044 ACC-132 4 Principles of Accounting II Online 5/26/2020 7/20/2020
2020SU Business 70045 ACC-142 3 Financial Accounting Online 5/26/2020 7/20/2020
2020SU Business 70046 ACC-146 3 Managerial Accounting Online 5/26/2020 7/20/2020
2020SU Business 70047 ACC-161 3 Payroll Accounting Online 5/26/2020 7/20/2020
2020SU Business 70048 ACC-221 3 Cost Accounting Online 5/26/2020 7/20/2020
2020SU Business 70049 ACC-237 4 Intermediate Accounting I Online 5/26/2020 7/20/2020
2020SU Business 70050 ACC-265 4 Income Tax Accounting Online 5/26/2020 7/20/2020
2020SU Business 70051 ACC-311 3 Computer Accounting Online 5/26/2020 7/20/2020
2020SU Business 70054 ADM-105 1 Intro to Keyboarding Online 5/26/2020 7/20/2020
2020SU Business 70055 ADM-122 3 Document Formatting Online 5/26/2020 7/20/2020
2020SU Humanities 70096 ART-124 3 Computer Art Online 5/26/2020 7/20/2020
2020SU Science 70098 BIO-105 4 Introductory Biology Online 5/26/2020 7/20/2020
2020SU Science 70099 BIO-114 4 General Biology IA Online 5/26/2020 7/20/2020
2020SU Science 70100 BIO-115 4 General Biology IIA Online 5/26/2020 7/20/2020
2020SU Science 70101 BIO-125 4 Plant Biology Online 5/26/2020 7/20/2020
2020SU Science 70103 BIO-146 3 Genetics Online 5/26/2020 7/20/2020
2020SU Science 70104 BIO-157 4 Human Biology Online 5/26/2020 7/20/2020
2020SU Science 70105 BIO-162 3 Essentials of Anatomy & Phys Online 5/26/2020 7/20/2020
2020SU Science 70106 BIO-163 4 Essentials of Anatomy and Phys Online 5/26/2020 7/20/2020
2020SU Business 70107 BUS-102 3 Introduction to Business Online 5/26/2020 7/20/2020
2020SU Business 70108 BUS-106 2 Employment Strategies Online 5/26/2020 7/20/2020
2020SU Business 70109 BUS-110 3 Business Math & Calculators Online 5/26/2020 7/20/2020
2020SU Communications 70110 BUS-121 3 Business Communications Online 5/26/2020 7/20/2020
2020SU Business 70113 BUS-150 3 E-Commerce Online 5/26/2020 7/20/2020
2020SU Business 70115 BUS-180 3 Business Ethics Online 5/26/2020 7/20/2020
2020SU Business 70116 BUS-185 3 Business Law I Online 5/26/2020 7/20/2020
2020SU Business 70117 BUS-186 3 Business Law II Online 5/26/2020 7/20/2020
2020SU Business 70118 BUS-197 3 Leadership Development Online 5/26/2020 7/20/2020
2020SU Business 70119 BUS-210 3 Business Statistics Online 5/26/2020 7/20/2020
2020SU Business 70120 BUS-212 3 Business Statistics II Online 5/26/2020 7/20/2020
2020SU Science 70121 CHM-110 3 Introduction to Chemistry Online 5/26/2020 7/20/2020
2020SU Science 70122 CHM-122 4 Intro to General Chemistry Online 5/26/2020 7/20/2020
2020SU Science 70123 CHM-132 4 Intro to Organic & Biochem Online 5/26/2020 7/20/2020
2020SU Communications 70181 SPC-112 3 Public Speaking Online 5/26/2020 7/20/2020
2020SU Science 70258 CHM-151 4 College Chemistry I Online 5/26/2020 7/20/2020
2020SU Science 70259 CHM-152 4 College Chemistry II Online 5/26/2020 7/20/2020
2020SU Science 70260 CHM-166 5 General Chemistry I Online 5/26/2020 7/20/2020
2020SU Science 70261 CHM-176 5 General Chemistry II Online 5/26/2020 7/20/2020
2020SU Computer Science 70262 CIS-121 3 Intro to Programming Logic Online 5/26/2020 7/20/2020
2020SU Computer Science 70263 CIS-140 3 Intro to Game Design Online 5/26/2020 7/20/2020
2020SU Computer Science 70265 CIS-210 3 Web Development I Online 5/26/2020 7/20/2020
2020SU Computer Science 70266 CIS-251 3 Fundamentals of Web Design I Online 5/26/2020 7/20/2020
2020SU Computer Science 70267 CIS-606 3 Visual Basic.NET I Online 5/26/2020 7/20/2020
2020SU Communications 70268 COM-140 3 Introduction to Mass Media Online 5/26/2020 7/20/2020
2020SU Social Science 70269 CRJ-118 3 Law Enforcement Online 5/26/2020 7/20/2020
2020SU Social Science 70270 CRJ-200 3 Criminology Online 5/26/2020 7/20/2020
2020SU Social Science 70273 CRJ-207 3 Drug Use and Abuse Online 5/26/2020 7/20/2020
2020SU Computer Science 70277 CSC-110 3 Introduction to Computers Online 5/26/2020 7/20/2020
2020SU Education 70319 ECE-133 3 Child Health Safety & Nutritio Online 5/26/2020 7/20/2020
2020SU Education 70320 ECE-158 3 Early Childhood Curr I Online 5/26/2020 7/20/2020
2020SU Education 70321 ECE-170 3 Child Growth and Development Online 5/26/2020 7/20/2020
2020SU Education 70322 ECE-221 3 Infant/Toddler Care & Educ Online 5/26/2020 7/20/2020
2020SU Education 70323 ECE-243 3 Early Childhood Guidance Online 5/26/2020 7/20/2020
2020SU Education 70324 ECE-287 3 Exceptional Learner Online 5/26/2020 7/20/2020
2020SU Education 70326 EDU-210 3 Foundations of Education Online 5/26/2020 7/20/2020
2020SU Education 70328 EDU-220 3 HR for the Classroom Teacher Online 5/26/2020 7/20/2020
2020SU Education 70329 EDU-235 3 Children's Literature Online 5/26/2020 7/20/2020
2020SU Education 70330 EDU-240 3 Educational Psychology Online 5/26/2020 7/20/2020
2020SU Education 70331 EDU-245 3 Exceptional Learner Online 5/26/2020 7/20/2020
2020SU Education 70332 EDU-255 3 Technology in the Classroom Online 5/26/2020 7/20/2020
2020SU Communications 70333 ENG-107 3 Composition I: Technical Writi Online 5/26/2020 7/20/2020
2020SU Communications 70335 ENG-221 3 Creative Writing Online 5/26/2020 7/20/2020
2020SU Science 70336 ENV-111 4 Environmental Science Online 5/26/2020 7/20/2020
2020SU Science 70337 ENV-145 4 Conservation Biology Online 5/26/2020 7/20/2020
2020SU Business 70338 FIN-101 3 Principles of Banking Online 5/26/2020 7/20/2020
2020SU Business 70339 FIN-121 3 Personal Finance Online 5/26/2020 7/20/2020
2020SU Business 70340 FIN-130 3 Principles of Finance Online 5/28/2020 7/20/2020
2020SU Humanities 70341 FLG-141 4 Elementary German I Online 5/26/2020 7/20/2020
2020SU Humanities 70342 FLS-141 4 Elementary Spanish I Online 5/26/2020 7/20/2020
2020SU Humanities 70343 FLS-142 4 Elementary Spanish II Online 5/26/2020 7/20/2020
2020SU Humanities 70344 FLS-231 3 Intermediate Spanish I Online 5/26/2020 7/20/2020
2020SU Humanities 70345 FLS-232 3 Intermediate Spanish II Online 5/26/2020 7/20/2020
2020SU Humanities 70346 FLS-241 4 Intermediate Spanish I Online 5/26/2020 7/20/2020
2020SU Humanities 70347 FLS-242 4 Intermediate Spanish II Online 5/26/2020 7/20/2020
2020SU Computer Science 70348 GRA-141 3 Digital Imaging II Online 5/26/2020 7/20/2020
2020SU Social Science 70349 HIS-151 3 U.S. History to 1877 Online 5/26/2020 7/20/2020
2020SU Social Science 70351 HIS-152 3 U.S.History Since 1877 Online 5/26/2020 7/20/2020
2020SU Social Science 70352 HIS-201 3 Iowa History Online 5/26/2020 7/20/2020
2020SU Humanities 70353 HIS-211 3 Modern Asian History Online 5/26/2020 7/20/2020
2020SU Social Science 70355 HIS-251 3 U.S. History 1945-Present Online 5/26/2020 7/20/2020
2020SU Social Science 70362 HIS-253 3 Amer. Indian Hist. & Culture Online 5/26/2020 7/20/2020
2020SU Health 70364 HSC-113 2 Medical Terminology Online 5/26/2020 7/20/2020
2020SU Humanities 70371 HIS-231 3 Contemporary World Affairs Online 5/26/2020 7/20/2020
2020SU Social Science 70372 HIS-268 3 American Experience in Vietnam Online 5/26/2020 7/20/2020
2020SU Health 70506 HSC-114 3 Medical Terminology Online 5/26/2020 7/20/2020
2020SU Health 70507 HSC-143 3 Pharmacology Online 5/26/2020 7/20/2020
2020SU Humanities 70508 HUM-110 3 Changes and Choices Online 5/26/2020 7/20/2020
2020SU Humanities 70510 HUM-220 3 Mythology Online 5/26/2020 7/20/2020
2020SU Humanities 70511 HUM-287 3 Leadership Development Studies Online 5/26/2020 7/20/2020
2020SU Humanities 70512 LIT-101 3 Introduction to Literature Online 5/26/2020 7/20/2020
2020SU Humanities 70514 LIT-111 3 American Lit. Since Mid-1800's Online 5/26/2020 7/20/2020
2020SU Humanities 70515 LIT-120 3 American Novel Online 5/26/2020 7/20/2020
2020SU Humanities 70516 LIT-130 3 African American Literature Online 5/26/2020 7/20/2020
2020SU Humanities 70517 LIT-161 3 The Short Story Online 5/26/2020 7/20/2020
2020SU Humanities 70518 LIT-184 3 Young Adult Literature Online 5/26/2020 7/20/2020
2020SU Health 70519 MAP-402 2 Medical Law and Ethics Online 5/26/2020 7/20/2020
2020SU Mathematics 70520 MAT-128 4 Pre-Calculus Online 5/26/2020 7/20/2020
2020SU Mathematics 70521 MAT-165 3 Business Calculus Online 5/26/2020 7/20/2020
2020SU Mathematics 70522 MAT-210 4 Calculus I Online 5/26/2020 7/20/2020
2020SU Mathematics 70523 MAT-216 4 Calculus II Online 5/26/2020 7/20/2020
2020SU Mathematics 70524 MAT-219 4 Calculus III Online 5/26/2020 7/20/2020
2020SU Mathematics 70525 MAT-227 4 Differential Equations Online 5/26/2020 7/20/2020
2020SU Business 70526 MGT-110 3 Small Business Management Online 5/26/2020 7/20/2020
2020SU Business 70527 MGT-151 3 Management Communication I Online 5/26/2020 7/20/2020
2020SU Business 70528 MGT-165 3 Principles of Quality Online 5/26/2020 7/20/2020
2020SU Business 70529 MGT-170 3 Human Resource Management Online 5/26/2020 7/20/2020
2020SU Business 70530 MKT-140 3 Principles of Selling Online 5/26/2020 7/20/2020
2020SU Business 70531 MKT-181 2 Customer Service Strategies Online 5/26/2020 7/20/2020
2020SU Humanities 70532 MUS-102 3 Music Fundamentals Online 5/26/2020 7/20/2020
2020SU Humanities 70533 MUS-204 3 History of Rock and Roll Online 5/26/2020 7/20/2020
2020SU Coaching 70535 PEC-101 3 Introduction to Coaching Online 5/26/2020 7/20/2020
2020SU Coaching 70536 PEC-108 3 Sports and Society Online 5/26/2020 7/20/2020
2020SU Coaching 70537 PEC-110 1 Coaching Ethics, Tech & Theory Online 5/26/2020 6/5/2020
2020SU Coaching 70538 PEC-115 1 Athletic Dev. & Human Growth Online 6/6/2020 6/16/2020
2020SU Health 70539 PEH-102 3 Health Online 5/26/2020 7/20/2020
2020SU Coaching 70541 PEH-255 3 Priniples of Sports Management Online 5/26/2020 7/20/2020
2020SU Humanities 70542 PHI-101 3 Introduction to Philosophy Online 5/26/2020 7/20/2020
2020SU Humanities 70543 PHI-105 3 Intro to Ethics Online 5/26/2020 7/20/2020
2020SU Science 70544 PHS-120 4 Exploring Physical Science Online 5/26/2020 7/20/2020
2020SU Science 70545 PHS-142 3 Principles of Astronomy Online 5/26/2020 7/20/2020
2020SU Science 70547 PHS-166 4 Meteorology: Weather and Clima Online 5/26/2020 7/20/2020
2020SU Science 70548 PHS-172 4 Physical Geology Online 5/26/2020 7/20/2020
2020SU Science 70549 PHY-110 3 Survey of Physics I Online 5/26/2020 7/20/2020
2020SU Science 70550 PHY-162 4 College Physics I Online 5/26/2020 7/20/2020
2020SU Science 70551 PHY-172 4 College Physics II Online 5/26/2020 7/20/2020
2020SU Science 70552 PHY-212 5 Classical Physics I Online 5/26/2020 7/20/2020
2020SU Science 70553 PHY-222 5 Classic Physics II Online 5/26/2020 7/20/2020
2020SU Social Science 70554 POL-110 3 Intro to Political Science Online 5/26/2020 7/20/2020
2020SU Social Science 70555 POL-121 3 International Relations Online 5/26/2020 7/20/2020
2020SU Social Science 70556 POL-129 3 Politics of Terrorism Online 5/26/2020 7/20/2020
2020SU Social Science 70557 PSY-211 3 Psychology of Adjustment Online 5/26/2020 7/20/2020
2020SU Social Science 70558 PSY-222 3 Child Psychology Online 5/26/2020 7/20/2020
2020SU Social Science 70559 PSY-224 3 Adolescent Psychology Online 5/26/2020 7/20/2020
2020SU Social Science 70560 PSY-246 3 Introduction Counseling Skills Online 5/26/2020 7/20/2020
2020SU Social Science 70561 PSY-261 3 Human Sexuality Online 5/26/2020 7/20/2020
2020SU Social Science 70562 PSY-262 3 Psychology of Gender Online 5/26/2020 7/20/2020
2020SU Student Development 70563 SDV-108 1 The College Experience Online 5/26/2020 7/20/2020
2020SU Social Science 70564 SOC-115 3 Social Problems Online 5/26/2020 7/20/2020
2020SU Social Science 70565 SOC-120 3 Marriage and Family Online 5/26/2020 7/20/2020
2020SU Social Science 70566 SOC-160 3 Introduction to Social Work Online 5/26/2020 7/20/2020
2020SU Social Science 70567 SOC-200 3 Minority Group Relations Online 5/26/2020 7/20/2020
2020SU Social Science 70568 SOC-210 3 Men, Women & Society Online 5/26/2020 7/20/2020
2020SU Social Science 70569 SOC-212 3 Diversity Online 5/26/2020 7/20/2020
2020SU Communications 70570 SPC-122 3 Interpersonal Communication Online 5/26/2020 7/20/2020
2020SU Social Science 70690 POL-111 3 American National Government Online 6/8/2020 8/2/2020
2020SU Communications 70691 ENG-105 3 Composition I Online 6/8/2020 8/2/2020
2020SU Business 70692 MKT-110 3 Principles of Marketing Online 6/8/2020 8/2/2020
2020SU Social Science 70693 SOC-110 3 Introduction to Sociology Online 6/8/2020 8/2/2020
2020SU Communications 70694 ENG-106 3 Composition II Online 6/8/2020 8/2/2020
2020SU Humanities 70695 HIS-110 3 West. Civ: Ancient to Erly Mod Online 6/8/2020 8/2/2020
2020SU Humanities 70696 HIS-111 3 Western Civ: Early Mod to Pres Online 6/8/2020 8/2/2020
2020SU Business 70697 BUS-161 3 Human Relations Online 6/8/2020 8/2/2020
2020SU Humanities 70698 DRA-110 3 Introduction to Film Online 6/8/2020 8/2/2020
2020SU Business 70699 MGT-101 3 Principles of Management Online 6/8/2020 8/2/2020
2020SU Humanities 70700 MUS-100 3 Music Appreciation Online 6/8/2020 8/2/2020
2020SU Social Science 70701 PSY-241 3 Abnormal Psychology Online 6/8/2020 8/2/2020
2020SU Social Science 70702 PSY-111 3 Introduction to Psychology Online 6/8/2020 8/2/2020
2020SU Humanities 70703 ART-101 3 Art Appreciation Online 6/8/2020 8/2/2020
2020SU Social Science 70704 PSY-121 3 Developmental Psychology Online 6/8/2020 8/2/2020
2020SU Humanities 70705 GEO-121 3 World Regional Geography Online 6/8/2020 8/2/2020
2020SU Science 70706 BIO-168 4 Human Anatomy & Physiology I Online 6/8/2020 8/2/2020
2020SU Science 70707 BIO-173 4 Human Anatomy & Physiology II Online 6/8/2020 8/2/2020
2020SU Communications 70708 SPC-112 3 Public Speaking Online 6/8/2020 8/2/2020
2020SU Science 70709 BIO-151 3 Nutrition Online 6/8/2020 8/2/2020
2020SU Social Science 70710 ECN-120 3 Principles of Macroeconomics Online 6/8/2020 8/2/2020
2020SU Social Science 70711 ECN-130 3 Principles of Microeconomics Online 6/8/2020 8/2/2020
2020SU Science 70712 BIO-186 4 Microbiology Online 6/8/2020 8/2/2020
2020SU Mathematics 70713 MAT-110 3 Math for Liberal Arts Online 6/8/2020 8/2/2020
2020SU Mathematics 70714 MAT-121 4 College Algebra Online 6/8/2020 8/2/2020
2020SU Mathematics 70715 MAT-156 3 Statistics Online 6/8/2020 8/2/2020
2020SU Mathematics 70716 MAT-772 3 Applied Math Online 6/8/2020 8/2/2020
2020SU Business 70717 MGT-130 3 Principles of Supervision Online 6/8/2020 8/2/2020
2020SU Business 70718 ACC-131 4 Principles of Accounting I Online 6/8/2020 8/2/2020
2020SU Business 70719 ACC-142 3 Financial Accounting Online 6/8/2020 8/2/2020
2020SU Business 70720 ACC-146 3 Managerial Accounting Online 6/8/2020 8/2/2020
2020SU Business 70721 ADM-105 1 Intro to Keyboarding Online 6/8/2020 8/2/2020
2020SU Business 70722 BCA-732 1 Getting Organized With Outlook Online 6/8/2020 8/2/2020
2020SU Science 70723 BIO-105 4 Introductory Biology Online 6/8/2020 8/2/2020
2020SU Science 70724 BIO-114 4 General Biology IA Online 6/8/2020 8/2/2020
2020SU Business 70725 BUS-102 3 Introduction to Business Online 6/8/2020 8/2/2020
2020SU Business 70727 BUS-180 3 Business Ethics Online 6/8/2020 8/2/2020
2020SU Business 70728 BUS-185 3 Business Law I Online 6/8/2020 8/2/2020
2020SU Science 70729 CHM-122 4 Intro to General Chemistry Online 6/8/2020 8/2/2020
2020SU Science 70730 CHM-132 4 Intro to Organic & Biochem Online 6/8/2020 8/2/2020
2020SU Computer Science 70731 CSC-110 3 Introduction to Computers Online 6/8/2020 8/2/2020
2020SU Education 70732 EDU-235 3 Children's Literature Online 6/8/2020 8/2/2020
2020SU Science 70733 ENV-111 4 Environmental Science Online 6/8/2020 8/2/2020
2020SU Humanities 70734 FLS-141 4 Elementary Spanish I Online 6/8/2020 8/2/2020
2020SU Humanities 70735 FLS-142 4 Elementary Spanish II Online 6/8/2020 8/2/2020
2020SU Humanities 70736 GLS-100 3 Contemporary World Issues Online 6/8/2020 8/2/2020
2020SU Social Science 70737 HIS-151 3 U.S. History to 1877 Online 6/8/2020 8/2/2020
2020SU Social Science 70738 HIS-152 3 U.S.History Since 1877 Online 6/8/2020 8/2/2020
2020SU Health 70739 HSC-113 2 Medical Terminology Online 6/8/2020 8/2/2020
2020SU Health 70740 HSC-114 3 Medical Terminology Online 6/8/2020 8/2/2020
2020SU Humanities 70741 HUM-110 3 Changes and Choices Online 6/8/2020 8/2/2020
2020SU Humanities 70742 LIT-101 3 Introduction to Literature Online 6/8/2020 8/2/2020
2020SU Mathematics 70744 MAT-210 4 Calculus I Online 6/8/2020 8/2/2020
2020SU Mathematics 70745 MAT-227 4 Differential Equations Online 6/8/2020 8/2/2020
2020SU Coaching 70746 PEC-120 1 Body Structure and Function Online 6/8/2020 8/2/2020
2020SU Coaching 70747 PEC-126 2 Athletic Injury Prevention Online 6/8/2020 8/2/2020
2020SU Humanities 70748 PHI-101 3 Introduction to Philosophy Online 6/8/2020 8/2/2020
2020SU Humanities 70749 PHI-105 3 Intro to Ethics Online 6/8/2020 8/2/2020
2020SU Science 70750 PHY-162 4 College Physics I Online 6/8/2020 8/2/2020
2020SU Science 70751 PHY-222 5 Classic Physics II Online 6/8/2020 8/2/2020
2020SU Social Science 70753 SOC-120 3 Marriage and Family Online 6/8/2020 8/2/2020
2020SU Social Science 70754 POL-111 3 American National Government Online 7/6/2020 8/2/2020
2020SU Business 70755 MKT-110 3 Principles of Marketing Online 7/6/2020 8/2/2020
2020SU Social Science 70756 SOC-110 3 Introduction to Sociology Online 7/6/2020 8/2/2020
2020SU Health 70757 HSC-106 3 Contemporary Health Issues Online 7/6/2020 8/2/2020
2020SU Health 70758 HSC-245 1 Teambuilding Online 7/6/2020 8/2/2020
2020SU Coaching 70759 PEH-111 3 Personal Wellness Online 7/6/2020 8/2/2020
2020SU Humanities 70760 HIS-111 3 Western Civ: Early Mod to Pres Online 7/6/2020 8/2/2020
2020SU Humanities 70761 HIS-117 3 Western Civ 1: Anc & Medieval Online 7/6/2020 8/2/2020
2020SU Humanities 70762 HIS-118 3 Western Civ II: Early Modern Online 7/6/2020 8/2/2020
2020SU Humanities 70763 REL-101 3 Survey of World Religions Online 7/6/2020 8/2/2020
2020SU Social Science 70764 PSY-102 3 Human and Work Relations Online 7/6/2020 8/2/2020
2020SU Business 70765 BUS-161 3 Human Relations Online 7/6/2020 8/2/2020
2020SU Business 70766 MGT-101 3 Principles of Management Online 7/6/2020 8/2/2020
2020SU Humanities 70767 MUS-100 3 Music Appreciation Online 7/6/2020 8/2/2020
2020SU Social Science 70784 PSY-111 3 Introduction to Psychology Online 7/6/2020 8/2/2020
2020SU Social Science 70785 PSY-241 3 Abnormal Psychology Online 7/6/2020 8/2/2020
2020SU Social Science 70786 PSY-121 3 Developmental Psychology Online 7/6/2020 8/2/2020
2020SU Humanities 70787 GEO-121 3 World Regional Geography Online 7/6/2020 8/2/2020
2020SU Science 70788 BIO-151 3 Nutrition Online 7/6/2020 8/2/2020
2020SU Mathematics 70789 MAT-110 3 Math for Liberal Arts Online 7/6/2020 8/2/2020
2020SU Humanities 70790 ART-186 3 Digital Photography Online 06/07/2020 02/08/2020
2020SU Business 70791 BUS-102 3 Introduction to Business Online 7/6/2020 8/2/2020
2020SU Business 70792 BUS-180 3 Business Ethics Online 7/6/2020 8/2/2020
2020SU Computer Science 70793 CSC-110 3 Introduction to Computers Online 7/6/2020 8/2/2020
2020SU Education 70794 EDU-235 3 Children's Literature Online 7/6/2020 8/2/2020
2020SU Business 70795 FIN-121 3 Personal Finance Online 7/6/2020 8/2/2020
2020SU Humanities 70796 GLS-100 3 Contemporary World Issues Online 7/6/2020 8/2/2020
2020SU Social Science 70797 HIS-151 3 U.S. History to 1877 Online 7/6/2020 8/2/2020
2020SU Health 70798 HSC-113 2 Medical Terminology Online 7/6/2020 8/2/2020
2020SU Health 70799 HSC-114 3 Medical Terminology Online 7/6/2020 8/2/2020
2020SU Humanities 70800 HUM-110 3 Changes and Choices Online 7/6/2020 8/2/2020
2020SU Humanities 70801 MUS-204 3 History of Rock and Roll Online 7/6/2020 8/2/2020
2020SU Coaching 70817 PEH-255 3 Priniples of Sports Management Online 7/6/2020 8/2/2020
2020SU Humanities 70818 PHI-105 3 Intro to Ethics Online 7/6/2020 8/2/2020
2020SU Social Science 70819 PSY-222 3 Child Psychology Online 7/6/2020 8/2/2020
2020SU Social Science 70820 SOC-120 3 Marriage and Family Online 7/6/2020 8/2/2020
2020FA Social Science 70838 POL-111 3 American National Government Online 8/24/2020 12/13/2020
2020FA Humanities 70840 ART-117 3 Computer Graphic Design Online 8/24/2020 12/13/2020
2020FA Communications 70841 ENG-105 3 Composition I Online 8/24/2020 12/13/2020
2020FA Business 70842 MKT-110 3 Principles of Marketing Online 8/24/2020 12/13/2020
2020FA Social Science 70843 SOC-110 3 Introduction to Sociology Online 8/24/2020 12/13/2020
2020FA Health 70844 HSC-106 3 Contemporary Health Issues Online 8/24/2020 12/13/2020
2020FA General Arts & Science 70845 PEH-109 1 Personal Wellness Online 8/24/2020 12/13/2020
2020FA Communications 70847 ENG-106 3 Composition II Online 8/24/2020 12/13/2020
2020FA Humanities 70851 MUS-205 3 Jazz History & Appreciation Online 8/24/2020 12/13/2020
2020FA Humanities 70856 LIT-185 3 Contemporary Literature Online 8/24/2020 12/13/2020
2020FA Humanities 70857 ANT-105 3 Cultural Anthropology Online 8/24/2020 12/13/2020
2020FA Humanities 70859 ART-120 3 2-D Design Online 8/24/2020 12/13/2020
2020FA Humanities 70860 DRA-101 3 Introduction to Theatre Online 8/24/2020 12/13/2020
2020FA Coaching 70861 PEH-111 3 Personal Wellness Online 8/24/2020 12/13/2020
2020FA Humanities 70868 HIS-110 3 West. Civ: Ancient to Erly Mod Online 8/24/2020 12/13/2020
2020FA Humanities 70869 HIS-111 3 Western Civ: Early Mod to Pres Online 8/24/2020 12/13/2020
2020FA Humanities 70870 HIS-117 3 Western Civ 1: Anc & Medieval Online 8/24/2020 12/13/2020
2020FA Humanities 70871 HIS-118 3 Western Civ II: Early Modern Online 8/24/2020 12/13/2020
2020FA Humanities 70872 HIS-119 3 Western Civ Iii: Modern Period Online 8/24/2020 12/13/2020
2020FA Social Science 70873 HIS-257 3 African American History Online 8/24/2020 12/13/2020
2020FA Humanities 70874 REL-101 3 Survey of World Religions Online 8/24/2020 12/13/2020
2020FA Social Science 70875 CRJ-141 3 Criminal Investigation Online 8/24/2020 12/13/2020
2020FA Humanities 70876 ART-203 3 Art History I Online 8/24/2020 12/13/2020
2020FA Social Science 70877 PSY-102 3 Human and Work Relations Online 8/24/2020 12/13/2020
2020FA Humanities 70882 GEO-126 3 Cultural Geography Online 8/24/2020 12/13/2020
2020FA Science 70883 PHS-185 3 Intro to Earth Science Online 8/24/2020 12/13/2020
2020FA Business 70884 BUS-161 3 Human Relations Online 8/24/2020 12/13/2020
2020FA Social Science 70885 CRJ-100 3 Intro to Criminal Justice Online 8/24/2020 12/13/2020
2020FA Humanities 70886 DRA-110 3 Introduction to Film Online 8/24/2020 12/13/2020
2020FA Social Science 70887 ECN-110 3 Introduction to Economics Online 8/24/2020 12/13/2020
2020FA Humanities 70888 FLF-141 4 Elementary French I Online 8/24/2020 12/13/2020
2020FA Humanities 70890 HUM-137 3 Humanities of the Modern World Online 8/24/2020 12/13/2020
2020FA Business 70891 MGT-101 3 Principles of Management Online 8/24/2020 12/13/2020
2020FA Business 70892 MGT-178 3 Employment Law Online 8/24/2020 12/13/2020
2020FA Humanities 70893 MMS-101 3 Mass Media Online 8/24/2020 12/13/2020
2020FA Humanities 70894 MUS-100 3 Music Appreciation Online 8/24/2020 12/13/2020
2020FA Humanities 70896 REL-150 3 Introduction to the Bible Online 8/24/2020 12/13/2020
2020FA Business 70898 BUS-130 3 Intro to Entrepreneurship Online 8/24/2020 12/13/2020
2020FA Social Science 70900 PSY-111 3 Introduction to Psychology Online 8/24/2020 12/13/2020
2020FA Humanities 70901 ART-101 3 Art Appreciation Online 8/24/2020 12/13/2020
2020FA Humanities 70902 ART-204 3 Art History II Online 8/24/2020 12/13/2020
2020FA Mathematics 70903 MAT-117 3 Math for Elementary Teachers Online 8/24/2020 12/13/2020
2020FA Social Science 70904 SOC-186 3 Contemporary Global Issues Online 8/24/2020 12/13/2020
2020FA Social Science 70906 PSY-241 3 Abnormal Psychology Online 8/24/2020 12/13/2020
2020FA Social Science 70907 POL-112 3 American State and Local Gov Online 8/24/2020 12/13/2020
2020FA Social Science 70909 PSY-226 3 Psychology of Aging Online 8/24/2020 12/13/2020
2020FA Business 70910 MKT-150 3 Principles of Advertising Online 8/24/2020 12/13/2020
2020FA Social Science 70911 PSY-121 3 Developmental Psychology Online 8/24/2020 12/13/2020
2020FA Humanities 70912 GEO-121 3 World Regional Geography Online 8/24/2020 12/13/2020
2020FA Social Science 70913 PSY-251 3 Social Psychology Online 8/24/2020 12/13/2020
2020FA Science 70914 BIO-168 4 Human Anatomy & Physiology I Online 8/24/2020 12/13/2020
2020FA Science 70915 BIO-173 4 Human Anatomy & Physiology II Online 8/24/2020 12/13/2020
2020FA Communications 70916 SPC-112 3 Public Speaking Online 8/24/2020 12/13/2020
2020FA Business 70917 MGT-174 3 Training and Employee Developm Online 8/24/2020 12/13/2020
2020FA Education 70918 ECE-103 3 Intro to Early Childhood Ed Online 8/24/2020 12/13/2020
2020FA Social Science 70919 PSY-223 3 Child & Adolescent Psychology Online 8/24/2020 12/13/2020
2020FA Science 70921 BIO-151 3 Nutrition Online 8/24/2020 12/13/2020
2020FA Social Science 70922 ECN-120 3 Principles of Macroeconomics Online 8/24/2020 12/13/2020
2020FA Social Science 70923 ECN-130 3 Principles of Microeconomics Online 8/24/2020 12/13/2020
2020FA Science 70924 BIO-186 4 Microbiology Online 8/24/2020 12/13/2020
2020FA Social Science 70925 CRJ-130 3 Criminal Law Online 8/24/2020 12/13/2020
2020FA Mathematics 70926 MAT-054 3 Math Strategies Online 8/24/2020 12/13/2020
2020FA Mathematics 70927 MAT-102 4 Intermediate Algebra Online 8/24/2020 12/13/2020
2020FA Mathematics 70929 MAT-104 3 Applied Math Topics Online 8/24/2020 12/13/2020
2020FA Mathematics 70930 MAT-110 3 Math for Liberal Arts Online 8/24/2020 12/13/2020
2020FA Mathematics 70931 MAT-121 4 College Algebra Online 8/24/2020 12/13/2020
2020FA Mathematics 70932 MAT-129 5 Precalculus Online 8/24/2020 12/13/2020
2020FA Mathematics 70933 MAT-140 3 Finite Math Online 8/24/2020 12/13/2020
2020FA Mathematics 70934 MAT-156 3 Statistics Online 8/24/2020 12/13/2020
2020FA Mathematics 70935 MAT-772 3 Applied Math Online 8/24/2020 12/13/2020
2020FA Business 70936 MGT-130 3 Principles of Supervision Online 8/24/2020 12/13/2020
2020FA Science 70937 PHS-113 4 Introduction to Physical Scien Online 8/24/2020 12/13/2020
2020FA Humanities 70940 ART-186 3 Digital Photography Online 8/24/2020 12/13/2020
2020FA Business 70943 ACC-111 3 Intro to Accounting Online 8/24/2020 12/13/2020
2020FA Business 70951 ACC-121 3 Principles of Accounting I Online 8/24/2020 12/13/2020
2020FA Business 70952 ACC-131 4 Principles of Accounting I M W Online 8/24/2020 12/13/2020 8:00AM 10:00AM Drenkow, Sheila
2020FA Business 70953 ACC-132 4 Principles of Accounting II Online 8/24/2020 12/13/2020
2020FA Business 70954 ACC-142 3 Financial Accounting Online 8/24/2020 12/13/2020
2020FA Business 70955 ACC-146 3 Managerial Accounting Online 8/24/2020 12/13/2020
2020FA Business 70956 ACC-161 3 Payroll Accounting T TH Online 8/24/2020 12/13/2020 8:00AM 9:25AM Drenkow, Sheila
2020FA Business 70957 ACC-221 3 Cost Accounting T TH Online 8/24/2020 12/13/2020 9:35AM 11:00AM Drenkow, Sheila
2020FA Business 70958 ACC-231 4 Intermediate Accounting I T TH Online 8/24/2020 12/13/2020 1:30PM 3:30PM Drenkow, Sheila
2020FA Business 70959 ACC-237 4 Intermediate Accounting I Online 8/24/2020 12/13/2020
2020FA Business 70961 ADM-105 1 Intro to Keyboarding Online 8/24/2020 12/13/2020
2020FA Business 70963 ADM-122 3 Document Formatting Online 8/24/2020 12/13/2020
2020FA Business 70968 ADM-179 3 Records Management Online 8/24/2020 12/13/2020
2020FA Business 70970 ADM-191 3 Virtual Office Mangement I Online 8/24/2020 12/13/2020
2020FA Business 70971 ADM-193 3 Virtual Office Management III Online 8/24/2020 12/13/2020
2020FA Business 70972 ADM-199 3 Project and Event Management Online 8/24/2020 12/13/2020
2020FA Agriculture 70974 AGA-114 3 Principles of Agronomy Online 8/24/2020 12/13/2020
2020FA Agriculture 70977 AGB-466 3 Agricultural Finance Online 8/24/2020 12/13/2020
2020FA Agriculture 70979 AGP-329 3 Introduction to GPS Online 8/24/2020 12/13/2020
2020FA Agriculture 70980 AGS-113 3 Survey of the Animal Industry Online 8/24/2020 12/13/2020
2020FA Agriculture 70981 AGS-242 3 Animal Health Online 8/24/2020 12/13/2020
2020FA Agriculture 70982 AGS-270 3 Foods of Animal Origin Online 8/24/2020 12/13/2020
2020FA Agriculture 70983 AGS-319 3 Animal Nutrition Online 8/24/2020 12/13/2020
2020FA Agriculture 70984 AGT-250 3 Foods & Biosecurity Issues Online 8/24/2020 12/13/2020
2020FA Humanities 70985 ART-124 3 Computer Art Online 8/24/2020 12/13/2020
2020FA Humanities 70986 ART-133 3 Drawing Online 8/24/2020 12/13/2020
2020FA Humanities 70987 ART-143 3 Painting Online 8/24/2020 12/13/2020
2020FA Business 70988 BCA-152 3 Comprehensive Spreadsheets Online 8/24/2020 12/13/2020
2020FA Computer Science 70989 BCA-215 3 Computer Business Applications Online 8/24/2020 12/13/2020
2020FA Computer Science 70990 BCA-218 3 Advanced Office Applications Online 8/24/2020 12/13/2020
2020FA Business 70991 BCA-220 2 Integrated Computer Business a Online 8/24/2020 12/13/2020
2020FA Business 70992 BCA-250 3 Desktop Publishing-Publisher Online 8/24/2020 12/13/2020
2020FA Science 70993 BIO-105 4 Introductory Biology Online 8/24/2020 12/13/2020
2020FA Science 70994 BIO-114 4 General Biology IA Online 8/24/2020 12/13/2020
2020FA Science 70995 BIO-115 4 General Biology IIA Online 8/24/2020 12/13/2020
2020FA Science 70996 BIO-125 4 Plant Biology Online 8/24/2020 12/13/2020
2020FA Science 70997 BIO-146 3 Genetics Online 8/24/2020 12/13/2020
2020FA Science 70998 BIO-157 4 Human Biology Online 8/24/2020 12/13/2020
2020FA Science 70999 BIO-162 3 Essentials of Anatomy & Phys Online 8/24/2020 12/13/2020
2020FA Science 71000 BIO-163 4 Essentials of Anatomy and Phys Online 8/24/2020 12/13/2020
2020FA Business 71002 BUS-102 3 Introduction to Business Online 8/24/2020 12/13/2020
2020FA Business 71003 BUS-106 2 Employment Strategies Online 8/24/2020 12/13/2020
2020FA Business 71004 BUS-110 3 Business Math & Calculators Online 8/24/2020 12/13/2020
2020FA Communications 71005 BUS-121 3 Business Communications Online 8/24/2020 12/13/2020
2020FA Business 71006 BUS-150 3 E-Commerce Online 8/24/2020 12/13/2020
2020FA Business 71007 BUS-162 3 Workplace Professionalism Online 8/24/2020 12/13/2020
2020FA Business 71009 BUS-180 3 Business Ethics Online 8/24/2020 12/13/2020
2020FA Business 71010 BUS-185 3 Business Law I Online 8/24/2020 12/13/2020
2020FA Business 71011 BUS-186 3 Business Law II Online 8/24/2020 12/13/2020
2020FA Business 71012 BUS-197 3 Leadership Development Online 8/24/2020 12/13/2020
2020FA Business 71013 BUS-210 3 Business Statistics Online 8/24/2020 12/13/2020
2020FA Business 71014 BUS-212 3 Business Statistics II Online 8/24/2020 12/13/2020
2020FA Technologies 71015 CAD-101 3 Introduction to CAD Online 8/24/2020 12/13/2020
2020FA Science 71017 CHM-110 3 Introduction to Chemistry Online 8/24/2020 12/13/2020
2020FA Science 71018 CHM-122 4 Intro to General Chemistry Online 8/24/2020 12/13/2020
2020FA Science 71019 CHM-132 4 Intro to Organic & Biochem Online 8/24/2020 12/13/2020
2020FA Science 71030 CHM-151 4 College Chemistry I Online 8/24/2020 12/13/2020
2020FA Science 71031 CHM-152 4 College Chemistry II Online 8/24/2020 12/13/2020
2020FA Science 71032 CHM-166 5 General Chemistry I Online 8/24/2020 12/13/2020
2020FA Science 71033 CHM-176 5 General Chemistry II Online 8/24/2020 12/13/2020
2020FA Computer Science 71034 CIS-121 3 Intro to Programming Logic Online 8/24/2020 12/13/2020
2020FA Computer Science 71035 CIS-171 3 Java Online 8/24/2020 12/13/2020
2020FA Computer Science 71036 CIS-185 5 Oracle Academy: Database Desig Online 8/24/2020 12/13/2020
2020FA Computer Science 71038 CIS-210 3 Web Development I Online 8/24/2020 12/13/2020
2020FA Computer Science 71039 CIS-251 3 Fundamentals of Web Design I Online 8/24/2020 12/13/2020
2020FA Computer Science 71041 CIS-307 3 Introduction to Databases Online 8/24/2020 12/13/2020
2020FA Computer Science 71042 CIS-606 3 Visual Basic.NET I Online 8/24/2020 12/13/2020
2020FA Humanities 71044 CLS-150 3 Latin American History & Cult Online 8/24/2020 12/13/2020
2020FA Communications 71045 COM-140 3 Introduction to Mass Media Online 8/24/2020 12/13/2020
2020FA Communications 71046 COM-753 3 Technical Communications Online 8/24/2020 12/13/2020
2020FA Social Science 71047 CRJ-101 3 Ethics in Criminal Justice Online 8/24/2020 12/13/2020
2020FA Social Science 71048 CRJ-118 3 Law Enforcement Online 8/24/2020 12/13/2020
2020FA Social Science 71049 CRJ-120 3 Introduction to Corrections Online 8/24/2020 12/13/2020
2020FA Social Science 71051 CRJ-200 3 Criminology Online 8/24/2020 12/13/2020
2020FA Social Science 71052 CRJ-207 3 Drug Use and Abuse Online 8/24/2020 12/13/2020
2020FA Computer Science 71056 CSC-110 3 Introduction to Computers Online 8/24/2020 12/13/2020
2020FA Social Science 71059 DSV-160 4 Counseling Skills Online 8/24/2020 12/13/2020
2020FA Education 71062 ECE-133 3 Child Health Safety & Nutritio Online 8/24/2020 12/13/2020
2020FA Education 71063 ECE-158 3 Early Childhood Curr I Online 8/24/2020 12/13/2020
2020FA Education 71065 ECE-170 3 Child Growth and Development Online 8/24/2020 12/13/2020
2020FA Education 71066 ECE-170 3 Child Growth and Development Online 8/24/2020 12/13/2020
2020FA Education 71067 ECE-221 3 Infant/Toddler Care & Educ Online 8/24/2020 12/13/2020
2020FA Education 71068 ECE-243 3 Early Childhood Guidance Online 8/24/2020 12/13/2020
2020FA Education 71070 ECE-287 3 Exceptional Learner Online 8/24/2020 12/13/2020
2020FA Education 71071 ECE-290 3 Early Childhood Prgm Admin. Online 8/24/2020 12/13/2020
2020FA Education 71073 EDU-210 3 Foundations of Education Online 8/24/2020 12/13/2020
2020FA Business 71098 ACC-191 3 Financial Analysis T TH Online 8/24/2020 12/13/2020 11:10AM 12:35PM Drenkow, Sheila
2020FA Business 71117 BUS-102 3 Introduction to Business M W F On-Campus 8/19/2020 12/18/2020 12:20PM 1:15PM White, Jerry
2020FA Business 71126 BUS-185 3 Business Law I T TH On-Campus 8/19/2020 12/18/2020 8:00AM 9:25AM Gill, Bradley
2020FA Business 71127 MGT-101 3 Principles of Management M W F On-Campus 8/19/2020 12/18/2020 10:10AM 11:05AM Gill, Bradley
2020FA Business 71128 MGT-110 3 Small Business Management M W F On-Campus 8/19/2020 12/18/2020 1:25PM 2:20PM Gill, Bradley
2020FA Communications 71130 ENG-105 3 Composition I M W F On-Campus 8/19/2020 12/18/2020 10:10AM 11:05AM Jurrens, Amy
2020FA Communications 71131 ENG-105 3 Composition I M W F On-Campus 8/19/2020 12/18/2020 2:30PM 3:25PM Pick, Kaylyn
2020FA Communications 71132 ENG-105 3 Composition I M W F On-Campus 8/19/2020 12/18/2020 9:05AM 10:00AM Pick, Kaylyn
2020FA Communications 71133 ENG-106 3 Composition II M W F On-Campus 8/19/2020 12/18/2020 12:20PM 1:15PM Jurrens, Amy
2020FA Communications 71134 SPC-112 3 Public Speaking M W F On-Campus 8/19/2020 12/18/2020 7:30AM 8:25AM Jurrens, Amy
2020FA Communications 71135 SPC-112 3 Public Speaking M On-Campus 8/19/2020 12/18/2020 6:00PM 9:00PM
2020FA Communications 71136 SPC-112 3 Public Speaking M W F On-Campus 8/19/2020 12/18/2020 2:30PM 3:25PM Jurrens, Amy
2020FA Communications 71137 SPC-112 3 Public Speaking T TH On-Campus 8/19/2020 12/18/2020 11:10AM 12:35PM Pick, Kaylyn
2020FA Computer Science 71138 CSC-110 3 Introduction to Computers M W F On-Campus 8/19/2020 12/18/2020 8:00AM 8:55AM Gill, Bradley
2020FA Computer Science 71139 CSC-110 3 Introduction to Computers M W F On-Campus 8/19/2020 12/18/2020 12:20PM 1:15PM Gill, Bradley
2020FA Computer Science 71140 CSC-110 3 Introduction to Computers T TH On-Campus 8/19/2020 12/18/2020 9:35AM 11:00AM
2020FA Education 71142 EDU-210 3 Foundations of Education M W F On-Campus 8/19/2020 12/18/2020 1:25PM 2:20PM White, Jerry
2020FA Health 71143 HSC-113 2 Medical Terminology T TH On-Campus 8/19/2020 12/18/2020 2:30PM 3:25PM Schneider, MariBeth
2020FA Humanities 71144 ART-133 3 Drawing TH On-Campus 8/19/2020 12/18/2020 6:00PM 9:00PM
2020FA Humanities 71145 ART-163 3 Sculpture T On-Campus 8/19/2020 12/18/2020 6:00PM 9:00PM
2020FA Humanities 71146 ART-173 3 Ceramics M On-Campus 8/19/2020 12/18/2020 4:00PM 7:00PM
2020FA Humanities 71147 ART-173 3 Ceramics TH On-Campus 8/19/2020 12/18/2020 4:00PM 7:00PM
2020FA Humanities 71148 HIS-110 3 West. Civ: Ancient to Erly Mod T TH Hybrid 8/19/2020 12/18/2020 2:30PM 3:15PM Thiner, Adam
2020FA Humanities 71149 HIS-110 3 West. Civ: Ancient to Erly Mod M W F On-Campus 8/19/2020 12/18/2020 11:15AM 12:10PM Thiner, Adam
2020FA Humanities 71150 LIT-101 3 Introduction to Literature M W F On-Campus 8/19/2020 12/18/2020 1:25PM 2:20PM Jurrens, Amy
2020FA Humanities 71151 PHI-105 3 Intro to Ethics M W F On-Campus 8/19/2020 12/18/2020 11:15AM 12:10PM
2020FA Humanities 71152 REL-101 3 Survey of World Religions M W F On-Campus 8/19/2020 12/18/2020 12:20PM 1:15PM
2020FA Mathematics 71153 MAT-102 4 Intermediate Algebra M W On-Campus 8/19/2020 12/18/2020 10:10AM 12:10PM
2020FA Mathematics 71154 MAT-110 3 Math for Liberal Arts M W F On-Campus 8/19/2020 12/18/2020 10:10AM 11:05AM Harris, Karla
2020FA Mathematics 71155 MAT-110 3 Math for Liberal Arts M W F On-Campus 8/19/2020 12/18/2020 12:20PM 1:15PM Harris, Karla
2020FA Mathematics 71156 MAT-110 3 Math for Liberal Arts T TH On-Campus 8/19/2020 12/18/2020 9:35AM 11:00AM Harris, Karla
2020FA Mathematics 71157 MAT-110 3 Math for Liberal Arts W On-Campus 8/19/2020 12/18/2020 6:00PM 9:00PM
2020FA Mathematics 71158 MAT-156 3 Statistics T TH On-Campus 8/19/2020 12/18/2020 11:10AM 12:35PM Grapevine, Susan
2020FA Mathematics 71159 MAT-210 4 Calculus I M T W TH On-Campus 8/19/2020 12/18/2020 2:10PM 3:05PM Grapevine, Susan
2020FA Science 71160 BIO-151 3 Nutrition T On-Campus 8/19/2020 12/18/2020 6:00PM 9:00PM
2020FA Science 71161 BIO-151 3 Nutrition T TH On-Campus 8/19/2020 12/18/2020 9:35AM 11:00AM Albrecht, Brian
2020FA Science 71162 BIO-154 3 Human Biology T TH On-Campus 8/19/2020 12/18/2020 11:10AM 12:35PM Albrecht, Brian
2020FA Science 71163 BIO-155 1 Human Biology Lab TH On-Campus 8/19/2020 12/18/2020 1:25PM 3:25PM Albrecht, Brian
2020FA Science 71164 BIO-165 3 Human Anatomy and Physiology I TH On-Campus 8/19/2020 12/18/2020 5:30PM 8:30PM
2020FA Science 71165 BIO-167 1 Human Anatomy and Phys I Lab TH On-Campus 8/19/2020 12/18/2020 8:30PM 10:30PM
2020FA Science 71166 BIO-165 3 Human Anatomy and Physiology I M W F On-Campus 8/19/2020 12/18/2020 12:20PM 1:15PM Albrecht, Brian
2020FA Science 71167 BIO-167 1 Human Anatomy and Phys I Lab M On-Campus 8/19/2020 12/18/2020 1:25PM 3:25PM Albrecht, Brian
2020FA Science 71168 BIO-167 1 Human Anatomy and Phys I Lab F On-Campus 8/19/2020 12/18/2020 9:05AM 11:05AM Albrecht, Brian
2020FA Science 71169 BIO-170 3 Human Anat and Phys II M W F On-Campus 8/19/2020 12/18/2020 10:10AM 11:05AM
2020FA Science 71170 BIO-172 1 Human Anat and Phy II Lab W On-Campus 8/19/2020 12/18/2020 1:25PM 3:25PM
2020FA Science 71171 BIO-170 3 Human Anat and Phys II T On-Campus 8/19/2020 12/18/2020 5:30PM 8:30PM
2020FA Science 71172 BIO-183 3 Microbiology M On-Campus 8/19/2020 12/18/2020 5:30PM 8:30PM Albrecht, Brian
2020FA Science 71173 BIO-184 1 Microbiology Lab M On-Campus 8/19/2020 12/18/2020 8:30PM 10:30PM Albrecht, Brian
2020FA Science 71174 CHM-163 3 General Chemistry I W On-Campus 8/19/2020 12/18/2020 5:30PM 8:30PM
2020FA Science 71175 CHM-164 1 General Chemistry I Lab W On-Campus 8/19/2020 12/18/2020 8:30PM 10:30PM
2020FA Science 71176 ENV-115 3 Environmental Science W On-Campus 8/19/2020 12/18/2020 5:30PM 8:30PM
2020FA Science 71177 ENV-116 1 Environmental Science Lab W On-Campus 8/19/2020 12/18/2020 8:30PM 10:30PM
2020FA Social Science 71178 ECN-130 3 Principles of Microeconomics T TH On-Campus 8/19/2020 12/18/2020 11:10AM 12:35PM Gill, Bradley
2020FA Social Science 71179 HIS-151 3 U.S. History to 1877 M W F On-Campus 8/19/2020 12/18/2020 9:05AM 10:00AM Thiner, Adam
2020FA Social Science 71180 PSY-111 3 Introduction to Psychology M W F On-Campus 8/19/2020 12/18/2020 2:30PM 3:25PM White, Jerry
2020FA Social Science 71181 PSY-111 3 Introduction to Psychology M W F On-Campus 8/19/2020 12/18/2020 11:15AM 12:10PM White, Jerry
2020FA Social Science 71182 PSY-111 3 Introduction to Psychology W On-Campus 8/19/2020 12/18/2020 6:00PM 9:00PM
2020FA Social Science 71183 PSY-121 3 Developmental Psychology M W F On-Campus 8/19/2020 12/18/2020 9:05AM 10:00AM White, Jerry
2020FA Social Science 71184 PSY-241 3 Abnormal Psychology M On-Campus 8/19/2020 12/18/2020 6:00PM 9:00PM
2020FA Social Science 71185 SOC-110 3 Introduction to Sociology M W F On-Campus 8/19/2020 12/18/2020 2:30PM 3:25PM
2020FA Social Science 71186 SOC-120 3 Marriage and Family M W F On-Campus 8/19/2020 12/18/2020 1:25PM 2:20PM
2020FA Mathematics 71187 MAT-044 1 Mastery Math On-Campus 8/19/2020 12/18/2020
2020FA Student Development 71188 SDV-108 1 The College Experience W On-Campus 8/19/2020 12/18/2020 9:05AM 10:00AM
2020FA Student Development 71189 SDV-108 1 The College Experience M On-Campus 8/19/2020 12/18/2020 10:10AM 11:05AM Pick, Kaylyn
2020FA Student Development 71190 SDV-108 1 The College Experience W On-Campus 8/19/2020 12/18/2020 12:20PM 1:15PM Pick, Kaylyn
2020FA Communications 71191 COM-712 3 Business Communications M W F On-Campus 8/19/2020 12/18/2020 1:25PM 2:20PM Boone, Janet
2020FA Communications 71192 COM-753 3 Technical Communications M W F On-Campus 8/19/2020 12/18/2020 8:00AM 8:55AM Pick, Kaylyn
2020FA Communications 71193 COM-753 3 Technical Communications M W F On-Campus 8/19/2020 12/18/2020 1:25PM 2:20PM Pick, Kaylyn
2020FA Mathematics 71194 MAT-104 3 Applied Math Topics M W F On-Campus 8/19/2020 12/18/2020 2:30PM 3:25PM
2020FA Mathematics 71195 MAT-104 3 Applied Math Topics T TH On-Campus 8/19/2020 12/18/2020 1:55PM 3:25PM Harris, Karla
2020FA Mathematics 71196 MAT-106 3 Elementary Algebra M W F On-Campus 8/19/2020 12/18/2020 9:05AM 10:00AM Harris, Karla
2020FA Mathematics 71197 MAT-108 3 Math Fundamentals T On-Campus 8/19/2020 12/18/2020 6:00PM 9:00PM
2020FA Mathematics 71198 MAT-123 4 Basic Algebra & Trigonometry M T W TH F On-Campus 8/19/2020 12/18/2020 8:00AM 8:55AM Harris, Karla
2020FA Student Development 71199 SDV-108 1 The College Experience Online 8/24/2020 12/13/2020 Oliver, Mariah
2020FA Communications 71200 ENG-106 3 Composition II Online 8/24/2020 12/13/2020 Cruse, Laura
2020FA Communications 71201 ENG-105 3 Composition I Online 8/24/2020 12/13/2020 Kosse, Jeffrey
2020FA Communications 71202 ENG-105 3 Composition I Online 8/24/2020 12/13/2020 Kosse, Jeffrey
2020FA Communications 71203 ENG-105 3 Composition I Online 8/24/2020 12/13/2020 Johnson, Patrick
2020FA Social Science 71204 SOC-110 3 Introduction to Sociology Online 8/24/2020 12/13/2020 Vander Velde, James
2020FA Social Science 71205 SOC-110 3 Introduction to Sociology Online 8/24/2020 12/13/2020 Nedley-Newcomb, Jody
2020FA Social Science 71206 SOC-110 3 Introduction to Sociology Online 8/24/2020 12/13/2020 Nedley-Newcomb, Jody
2020FA Humanities 71207 HIS-110 3 West. Civ: Ancient to Erly Mod Online 8/24/2020 12/13/2020 Hartog, John
2020FA Humanities 71208 HIS-110 3 West. Civ: Ancient to Erly Mod Online 8/24/2020 12/13/2020 Hartog, John
2020FA Humanities 71209 HIS-110 3 West. Civ: Ancient to Erly Mod Online 8/24/2020 12/13/2020 Regnerus, Gary
2020FA Humanities 71210 HIS-110 3 West. Civ: Ancient to Erly Mod Online 8/24/2020 12/13/2020 Regnerus, Gary
2020FA Humanities 71211 HIS-110 3 West. Civ: Ancient to Erly Mod Online 8/24/2020 12/13/2020 Matlage, Fred
2020FA Humanities 71212 HIS-111 3 Western Civ: Early Mod to Pres Online 8/24/2020 12/13/2020 Matlage, Fred
2020FA Social Science 71213 PSY-111 3 Introduction to Psychology Online 8/24/2020 12/13/2020 Dunn, Edward
2020FA Social Science 71214 PSY-111 3 Introduction to Psychology Online 8/24/2020 12/13/2020 Dunn, Edward
2020FA Social Science 71215 PSY-111 3 Introduction to Psychology Online 8/24/2020 12/13/2020 Gibbons, Stephen
2020FA Social Science 71216 PSY-111 3 Introduction to Psychology Online 8/24/2020 12/13/2020 Gibbons, Stephen
2020FA Communications 71217 SPC-112 3 Public Speaking Online 8/24/2020 12/13/2020 Borden, Jeff
2020FA Communications 71218 SPC-112 3 Public Speaking Online 8/24/2020 12/13/2020 Borden, Jeff
2020FA Communications 71219 SPC-112 3 Public Speaking Online 8/24/2020 12/13/2020 Davis, Stephanie
2020FA Science 71220 BIO-151 3 Nutrition Online 8/24/2020 12/13/2020
2020FA Mathematics 71221 MAT-121 4 College Algebra Online 8/24/2020 12/13/2020 Matsuyama, Garey
2020FA Humanities 71222 MUS-100 3 Music Appreciation Online 8/24/2020 12/13/2020 Greene, Doug
2020FA Humanities 71223 MUS-100 3 Music Appreciation Online 8/24/2020 12/13/2020 Greene, Doug
2020FA Humanities 71224 MUS-100 3 Music Appreciation Online 8/24/2020 12/13/2020 Greene, Doug
2020FA Business 71225 BUS-102 3 Introduction to Business Online 8/24/2020 12/13/2020 Hoekstra, Brian
2020FA Communications 71226 ENG-221 3 Creative Writing Online 8/24/2020 12/13/2020 Kosse, Jeffrey
2020FA Health 71227 HIT-120 1 Pharmacology for HIT Online 8/24/2020 12/13/2020 Schneider, MariBeth
2020FA Health 71228 HIT-370 3 Health Records in Acute Care Online 8/24/2020 12/13/2020 Schneider, MariBeth
2020FA Health 71229 HIT-420 2 Legal Aspects of Health Infor Online 8/24/2020 12/13/2020 Schneider, MariBeth
2020FA Health 71230 HIT-451 3 Allied Health Statistics Online 8/24/2020 12/13/2020 Schneider, MariBeth
2020FA Health 71231 HIT-595 1 HIT Practicum B Online 8/24/2020 12/13/2020 Schneider, MariBeth
2020FA Health 71232 HSC-114 3 Medical Terminology Online 8/24/2020 12/13/2020 Wilburn, Barbara
2020FA Humanities 71233 PHI-105 3 Intro to Ethics Online 8/24/2020 12/13/2020 Yanney, William
2020FA Communications 71234 ENG-105 3 Composition I Online 8/24/2020 10/18/2020
2020FA Humanities 71235 HIS-110 3 West. Civ: Ancient to Erly Mod Online 8/24/2020 10/18/2020
2020FA Student Development 71236 SDV-108 1 The College Experience Online 8/24/2020 10/18/2020
2020FA Science 71237 BIO-151 3 Nutrition Online 10/19/2020 12/13/2020
2020FA Computer Science 71238 CSC-110 3 Introduction to Computers Online 10/19/2020 12/13/2020
2020FA Social Science 71239 PSY-111 3 Introduction to Psychology Online 10/19/2020 12/13/2020
2020FA Health 71240 HIT-271 3 Medical Coding I Online 10/19/2020 12/13/2020 Dummett-Leget, Tobi
2020FA Agriculture 71241 AGA-154 3 Fundamentals of Soil Science Online 10/19/2020 12/13/2020
2020FA Business 71248 BCA-216 4 Intro to Microsoft Office App M W On-Campus 8/19/2020 12/18/2020 8:00AM 10:00AM Boone, Janet
2020FA Business 71249 ADM-166 3 Office Procedures I T TH On-Campus 8/19/2020 12/18/2020 8:00AM 9:25AM Boone, Janet
2020FA Business 71250 ADM-111 4 Keyboarding M W On-Campus 8/19/2020 12/18/2020 10:10AM 12:10PM Boone, Janet
2020FA Business 71251 BUS-111 2 Business Math T TH On-Campus 8/19/2020 12/18/2020 10:10AM 11:05AM White, Jerry
2020FA Health 71252 PHR-105 3 Introduction to Pharmacy Techn W On-Campus 8/19/2020 12/18/2020 6:00PM 9:00PM
2020FA Health 71253 PNN-659 8 Fundamentals of Nursing T TH On-Campus 8/19/2020 12/18/2020 9:05AM 11:05AM Stofferan, Rebecca
M W On-Campus 8/19/2020 12/18/2020 9:05AM 10:00AM Stofferan, Rebecca
M W On-Campus 8/19/2020 12/18/2020 11:15AM 1:15PM Stofferan, Rebecca
2020FA Health 71254 PNN-659 8 Fundamentals of Nursing T TH On-Campus 8/19/2020 12/18/2020 9:05AM 11:05AM
M W On-Campus 8/19/2020 12/18/2020 1:25PM 3:25PM
M W On-Campus 8/19/2020 12/18/2020 9:05AM 10:00AM
2020FA Health 71255 PNN-647 1 Nursing Concepts I W On-Campus 8/19/2020 12/18/2020 8:00AM 8:55AM Karhoff, Kimberly
2020FA Health 71256 PNN-670 4 Practical Nursing IA T W Hybrid 8/19/2020 12/18/2020 12:20PM 2:50PM Shilling, Angie
2020FA Health 71257 PNN-650 1 Nursing Concepts IIA T Hybrid 8/19/2020 12/18/2020 3:00PM 4:00PM Popkes, Nancy
2020FA Health 71258 PNN-671 2 Practical Nursing IA-Clinical TH F Hybrid 8/19/2020 12/18/2020 6:00AM 2:00PM
2020FA Health 71259 ADN-700 5 ADN Nursing IA W Other 8/19/2020 10/14/2020 12:30PM 2:00PM Popkes, Nancy
M T W Other 8/19/2020 10/14/2020 8:00AM 11:30AM Popkes, Nancy
2020FA Health 71260 ADN-701 1 ADN Nursing IA: Clinical TH F Other 8/19/2020 10/14/2020 8:00AM 3:25PM
2020FA Health 71261 ADN-648 2 Advanced Nursing Concepts I T On-Campus 8/19/2020 12/18/2020 1:30PM 3:30PM
2020FA Health 71262 ADN-702 5 ADN Nursing IB W Other 10/19/2020 12/18/2020 12:30PM 2:00PM Popkes, Nancy
M T W Other 10/19/2020 12/18/2020 8:00AM 11:30AM Popkes, Nancy
2020FA Health 71263 ADN-703 1 ADN Nursing IB-Clinical TH F Other 10/19/2020 12/18/2020 8:00AM 3:25PM
2020FA Health 71264 ADN-650 3 Transition to A D N M Hybrid 8/19/2020 12/18/2020 12:00PM 3:00PM Shilling, Angie
2020FA Health 71265 ADN-705 1 ADN Nursing IIA-Clinical W F Other 8/19/2020 10/14/2020 8:00AM 3:00PM
2020FA Health 71267 ADN-708 1 Advanced Nursing Concepts II W Hybrid 8/19/2020 12/18/2020 3:00PM 4:00PM Lappenga, Laura
2020FA Health 71268 ADN-706 5 ADN Nursing IIB TH Other 10/19/2020 12/18/2020 8:00AM 5:00PM Lappenga, Laura
2020FA Health 71269 RAD-122 4 Radiologic Procedures I TH On-Campus 8/19/2020 12/18/2020 1:00PM 3:00PM Steffen, Lacey
TH On-Campus 8/19/2020 12/18/2020 8:30AM 10:30AM Steffen, Lacey
TH On-Campus 8/19/2020 12/18/2020 10:30AM 12:30PM Steffen, Lacey
W On-Campus 8/19/2020 12/18/2020 2:30PM 4:30PM Steffen, Lacey
W On-Campus 8/19/2020 12/18/2020 8:00AM 11:00AM Steffen, Lacey
2020FA Health 71270 RAD-206 2 Clinical Education I M T Other 10/19/2020 12/18/2020 8:00AM 3:25PM
2020FA Health 71271 RAD-322 4 Imaging I F On-Campus 8/19/2020 12/18/2020 9:00AM 11:00AM Vanbeek, Kelsey
W On-Campus 8/19/2020 12/18/2020 12:00PM 2:00PM Vanbeek, Kelsey
2020FA Health 71272 RAD-106 2 Foundation of Radiologic Tech F On-Campus 8/19/2020 12/18/2020 11:00AM 12:00PM Cowan, Mary
2020FA Health 71273 RAD-510 6 Clinical Education IV W TH F On-Campus 8/19/2020 12/18/2020 8:00AM 4:30PM
2020FA Health 71274 RAD-797 3 Physics for Radiographers M On-Campus 8/19/2020 12/18/2020 8:30AM 11:30AM Vanbeek, Kelsey
2020FA Health 71275 RAD-851 2 Radiation Protection and Biolo M On-Campus 8/19/2020 12/18/2020 12:00PM 2:00PM Cowan, Mary
2020FA Health 71276 RAD-761 3 Film Evaluation T On-Campus 8/19/2020 12/18/2020 8:00AM 11:05AM Cowan, Mary
2020FA Education 71278 EDU-220 3 HR for the Classroom Teacher Online 8/24/2020 12/13/2020
2020FA Education 71279 EDU-235 3 Children's Literature Online 8/24/2020 12/13/2020
2020FA Education 71280 EDU-245 3 Exceptional Learner Online 8/24/2020 12/13/2020
2020FA Education 71281 EDU-255 3 Technology in the Classroom Online 8/24/2020 12/13/2020
2020FA Communications 71282 ENG-013 3 Basic Writing Online 8/24/2020 12/13/2020
2020FA Communications 71284 ENG-107 3 Composition I: Technical Writi Online 8/24/2020 12/13/2020
2020FA Communications 71285 ENG-150 3 Fund of English Grammar Online 8/24/2020 12/13/2020
2020FA Communications 71286 ENG-221 3 Creative Writing Online 8/24/2020 12/13/2020
2020FA Science 71287 ENV-111 4 Environmental Science Online 8/24/2020 12/13/2020
2020FA Science 71288 ENV-145 4 Conservation Biology Online 8/24/2020 12/13/2020
2020FA Business 71289 FIN-101 3 Principles of Banking Online 8/24/2020 12/13/2020
2020FA Business 71290 FIN-121 3 Personal Finance Online 8/24/2020 12/13/2020
2020FA Business 71291 FIN-130 3 Principles of Finance Online 8/24/2020 12/13/2020
2020FA Humanities 71293 FLS-141 4 Elementary Spanish I Online 8/24/2020 12/13/2020
2020FA Humanities 71294 FLS-142 4 Elementary Spanish II Online 8/24/2020 12/13/2020
2020FA Humanities 71295 FLS-231 3 Intermediate Spanish I Online 8/24/2020 12/13/2020
2020FA Humanities 71296 FLS-232 3 Intermediate Spanish II Online 8/24/2020 12/13/2020
2020FA Humanities 71298 FLS-241 4 Intermediate Spanish I Online 8/24/2020 12/13/2020
2020FA Humanities 71299 FLS-242 4 Intermediate Spanish II Online 8/24/2020 12/13/2020
2020FA General Arts & Science 71304 GRA-131 3 Digital Layout I Online 8/24/2020 12/13/2020
2020FA General Arts & Science 71305 GRA-140 3 Digital Imaging Online 8/24/2020 12/13/2020
2020FA Computer Science 71306 GRA-207 3 Design Principles II Online 8/24/2020 12/13/2020
2020FA Computer Science 71307 GRA-325 3 Digital Color Theory Online 8/24/2020 12/13/2020
2020FA Social Science 71308 HIS-151 3 U.S. History to 1877 Online 8/24/2020 12/13/2020
2020FA Social Science 71309 HIS-152 3 U.S.History Since 1877 Online 8/24/2020 12/13/2020
2020FA Social Science 71310 HIS-201 3 Iowa History Online 8/24/2020 12/13/2020
2020FA Humanities 71311 HIS-211 3 Modern Asian History Online 8/24/2020 12/13/2020
2020FA Humanities 71324 HIS-231 3 Contemporary World Affairs Online 8/24/2020 12/13/2020
2020FA Social Science 71325 HIS-251 3 U.S. History 1945-Present Online 8/24/2020 12/13/2020
2020FA Social Science 71326 HIS-253 3 Amer. Indian Hist. & Culture Online 8/24/2020 12/13/2020
2020FA Social Science 71327 HIS-268 3 American Experience in Vietnam Online 8/24/2020 12/13/2020
2020FA Humanities 71329 HIS-271 3 American Frontier History Online 8/24/2020 12/13/2020
2020FA Health 71334 HIT-250 3 Coding I Online 8/24/2020 12/13/2020
2020FA Health 71335 HIT-251 3 Coding II Online 8/24/2020 12/13/2020
2020FA Health 71336 HIT-252 3 Coding III Online 8/24/2020 12/13/2020
2020FA Health 71338 HIT-312 3 Hlth Info. Management Systems Online 8/24/2020 12/13/2020
2020FA Health 71341 HIT-380 3 Health Records in Alternate SE Online 8/24/2020 12/13/2020
2020FA Health 71342 HIT-422 3 Medico-Legal Ethics Online 8/24/2020 12/13/2020
2020FA Health 71343 HIT-440 3 Quality Management Online 8/24/2020 12/13/2020
2020FA Health 71345 HIT-485 3 Medical Billing & Reimbursemen Online 8/24/2020 12/13/2020
2020FA Health 71347 HSC-113 2 Medical Terminology Online 8/24/2020 12/13/2020
2020FA Health 71348 HSC-114 3 Medical Terminology Online 8/24/2020 12/13/2020
2020FA Health 71350 HSC-143 3 Pharmacology Online 8/24/2020 12/13/2020
2020FA Humanities 71353 HUM-110 3 Changes and Choices Online 8/24/2020 12/13/2020
2020FA Humanities 71355 HUM-220 3 Mythology Online 8/24/2020 12/13/2020
2020FA Humanities 71356 LIT-101 3 Introduction to Literature Online 8/24/2020 12/13/2020
2020FA Humanities 71357 LIT-111 3 American Lit. Since Mid-1800's Online 8/24/2020 12/13/2020
2020FA Humanities 71358 LIT-150 3 World Literature I Online 8/24/2020 12/13/2020
2020FA Humanities 71359 LIT-161 3 The Short Story Online 8/24/2020 12/13/2020
2020FA Humanities 71361 LIT-178 3 Mythological & Biblical Lit Online 8/24/2020 12/13/2020
2020FA Health 71362 PEH-115 3 Wellness Education M W F On-Campus 8/19/2020 12/18/2020 12:20PM 1:15PM
2020FA Science 71363 BIO-172 1 Human Anat and Phy II Lab T On-Campus 8/19/2020 12/18/2020 8:30PM 10:30PM
2020FA Humanities 71364 LIT-184 3 Young Adult Literature Online 8/24/2020 12/13/2020
2020FA Mathematics 71367 MAT-128 4 Pre-Calculus Online 8/24/2020 12/13/2020
2020FA Mathematics 71369 MAT-165 3 Business Calculus Online 8/24/2020 12/13/2020
2020FA Mathematics 71370 MAT-210 4 Calculus I Online 8/24/2020 12/13/2020
2020FA Mathematics 71371 MAT-219 4 Calculus III Online 8/24/2020 12/13/2020
2020FA Mathematics 71372 MAT-227 4 Differential Equations Online 8/24/2020 12/13/2020
2020FA Business 71373 MGT-110 3 Small Business Management Online 8/24/2020 12/13/2020
2020FA Business 71374 MGT-151 3 Management Communication I Online 8/24/2020 12/13/2020
2020FA Business 71375 MGT-165 3 Principles of Quality Online 8/24/2020 12/13/2020
2020FA Business 71376 MGT-170 3 Human Resource Management Online 8/24/2020 12/13/2020
2020FA Business 71377 MGT-177 3 Staffing Online 8/24/2020 12/13/2020
2020FA Business 71379 MGT-210 3 Management Decision-Making Online 8/24/2020 12/13/2020
2020FA Business 71380 MKT-121 3 Digital Marketing Online 8/24/2020 12/13/2020
2020FA Business 71381 MKT-140 3 Principles of Selling Online 8/24/2020 12/13/2020
2020FA Business 71389 MKT-181 2 Customer Service Strategies Online 8/24/2020 12/13/2020
2020FA Humanities 71391 MUS-204 3 History of Rock and Roll Online 8/24/2020 12/13/2020
2020FA Computer Science 71420 NET-114 3 Foundation of Information Tech Online 8/24/2020 12/13/2020
2020FA Computer Science 71422 NET-142 3 Network Essentials Online 8/24/2020 12/13/2020
2020FA Computer Science 71423 NET-155 3 Introduction to Wirless Networ Online 8/24/2020 12/13/2020
2020FA Computer Science 71424 NET-167 4 Computer Sys & Troubleshoot Online 8/24/2020 12/13/2020
2020FA Computer Science 71427 NET-303 3 Windows Workstation Operating Online 8/24/2020 12/13/2020
2020FA Computer Science 71428 NET-305 3 Introduction to Network Operat Online 8/24/2020 12/13/2020
2020FA Computer Science 71430 NET-612 3 Fundamentals of Network Securi Online 8/24/2020 12/13/2020
2020FA Computer Science 71431 NET-637 3 Network Intrusion Investigatio Online 8/24/2020 12/13/2020
2020FA Computer Science 71432 NET-785 3 Fundamentals of Desktop Suppor Online 8/24/2020 12/13/2020
2020FA Coaching 71433 PEC-101 3 Introduction to Coaching Online 8/24/2020 12/13/2020
2020FA Coaching 71434 PEC-108 3 Sports and Society Online 8/24/2020 12/13/2020
2020FA Coaching 71435 PEC-110 1 Coaching Ethics, Tech & Theory Online 8/24/2020 9/14/2020
2020FA Coaching 71436 PEC-115 1 Athletic Dev. & Human Growth Online 9/15/2020 10/6/2020
2020FA Health 71437 PEH-102 3 Health Online 8/24/2020 12/13/2020
2020FA Coaching 71439 PEH-255 3 Priniples of Sports Management Online 8/24/2020 12/13/2020
2020FA Humanities 71440 PHI-101 3 Introduction to Philosophy Online 8/19/2020 12/18/2020
2020FA Humanities 71441 PHI-105 3 Intro to Ethics Online 8/24/2020 12/13/2020
2020FA Humanities 71443 PHI-111 3 Basic Reasoning Online 8/24/2020 12/13/2020
2020FA Science 71445 PHS-120 4 Exploring Physical Science Online 8/24/2020 12/13/2020
2020FA Science 71446 PHS-142 3 Principles of Astronomy Online 8/24/2020 12/13/2020
2020FA Science 71448 PHS-166 4 Meteorology: Weather and Clima Online 8/24/2020 12/13/2020
2020FA Science 71449 PHS-172 4 Physical Geology Online 8/24/2020 12/13/2020
2020FA Science 71451 PHY-110 3 Survey of Physics I Online 8/24/2020 12/13/2020
2020FA Science 71452 PHY-111 3 Survey of Physics II Online 8/24/2020 12/13/2020
2020FA Science 71453 PHY-162 4 College Physics I Online 8/24/2020 12/13/2020
2020FA Science 71455 PHY-172 4 College Physics II Online 8/24/2020 12/13/2020
2020FA Science 71456 PHY-212 5 Classical Physics I Online 8/24/2020 12/13/2020
2020FA Science 71457 PHY-222 5 Classic Physics II Online 8/24/2020 12/13/2020
2020FA Social Science 71458 POL-110 3 Intro to Political Science Online 8/24/2020 12/13/2020
2020FA Social Science 71459 POL-121 3 International Relations Online 8/24/2020 12/13/2020
2020FA Social Science 71461 POL-129 3 Politics of Terrorism Online 8/24/2020 12/13/2020
2020FA Social Science 71463 PSY-211 3 Psychology of Adjustment Online 8/24/2020 12/13/2020
2020FA Social Science 71464 PSY-222 3 Child Psychology Online 8/24/2020 12/13/2020
2020FA Social Science 71465 PSY-224 3 Adolescent Psychology Online 8/24/2020 12/13/2020
2020FA Social Science 71466 PSY-246 3 Introduction Counseling Skills Online 8/24/2020 12/13/2020
2020FA Social Science 71467 PSY-261 3 Human Sexuality Online 8/24/2020 12/13/2020
2020FA Social Science 71468 PSY-262 3 Psychology of Gender Online 8/24/2020 12/13/2020
2020FA Social Science 71469 SOC-115 3 Social Problems Online 8/24/2020 12/13/2020
2020FA Social Science 71470 SOC-120 3 Marriage and Family Online 8/24/2020 12/13/2020
2020FA Social Science 71471 SOC-160 3 Introduction to Social Work Online 8/24/2020 12/13/2020
2020FA Social Science 71473 SOC-200 3 Minority Group Relations Online 8/24/2020 12/13/2020
2020FA Social Science 71474 SOC-210 3 Men, Women & Society Online 8/24/2020 12/13/2020
2020FA Social Science 71475 SOC-212 3 Diversity Online 8/24/2020 12/13/2020
2020FA Social Science 71476 SOC-220 3 Sociology of Aging Online 8/24/2020 12/13/2020
2020FA Communications 71477 SPC-101 3 Fund. of Oral Communication Online 8/24/2020 12/13/2020
2020FA Communications 71478 SPC-122 3 Interpersonal Communication Online 8/24/2020 12/13/2020
2020FA Social Science 71485 POL-111 3 American National Government Online 8/24/2020 10/18/2020
2020FA Communications 71486 ENG-105 3 Composition I Online 8/24/2020 10/18/2020
2020FA Business 71487 MKT-110 3 Principles of Marketing Online 8/24/2020 10/18/2020
2020FA Social Science 71488 SOC-110 3 Introduction to Sociology Online 8/24/2020 10/18/2020
2020FA Communications 71489 ENG-106 3 Composition II Online 8/24/2020 10/18/2020
2020FA Health 71490 HSC-245 1 Teambuilding Online 8/24/2020 10/18/2020
2020FA Humanities 71491 HIS-110 3 West. Civ: Ancient to Erly Mod Online 8/24/2020 10/18/2020
2020FA Humanities 71492 HIS-111 3 Western Civ: Early Mod to Pres Online 8/24/2020 10/18/2020
2020FA Business 71493 BUS-161 3 Human Relations Online 8/24/2020 10/18/2020
2020FA Business 71494 MGT-101 3 Principles of Management Online 8/24/2020 10/18/2020
2020FA Humanities 71495 MUS-100 3 Music Appreciation Online 8/24/2020 10/18/2020
2020FA Social Science 71496 PSY-111 3 Introduction to Psychology Online 8/24/2020 10/18/2020
2020FA Humanities 71497 ART-101 3 Art Appreciation Online 8/24/2020 10/18/2020
2020FA Social Science 71498 PSY-241 3 Abnormal Psychology Online 8/24/2020 10/18/2020
2020FA Social Science 71499 PSY-121 3 Developmental Psychology Online 8/24/2020 10/18/2020
2020FA Humanities 71500 GEO-121 3 World Regional Geography Online 8/24/2020 10/18/2020
2020FA Science 71501 BIO-168 4 Human Anatomy & Physiology I Online 8/24/2020 10/18/2020
2020FA Science 71502 BIO-173 4 Human Anatomy & Physiology II Online 8/24/2020 10/18/2020
2020FA Communications 71503 SPC-112 3 Public Speaking Online 8/24/2020 10/18/2020
2020FA Science 71504 BIO-151 3 Nutrition Online 8/24/2020 10/18/2020
2020FA Social Science 71505 ECN-120 3 Principles of Macroeconomics Online 8/24/2020 10/18/2020
2020FA Social Science 71506 ECN-130 3 Principles of Microeconomics Online 8/24/2020 10/18/2020
2020FA Science 71507 BIO-186 4 Microbiology Online 8/24/2020 10/18/2020
2020FA Mathematics 71508 MAT-110 3 Math for Liberal Arts Online 8/24/2020 10/18/2020
2020FA Mathematics 71509 MAT-121 4 College Algebra Online 8/24/2020 10/18/2020
2020FA Mathematics 71510 MAT-156 3 Statistics Online 8/24/2020 10/18/2020
2020FA Business 71515 MGT-130 3 Principles of Supervision Online 8/24/2020 10/18/2020
2020FA Business 71516 ACC-131 4 Principles of Accounting I Online 8/24/2020 10/18/2020
2020FA Business 71517 ACC-142 3 Financial Accounting Online 8/24/2020 10/18/2020
2020FA Business 71518 ADM-105 1 Intro to Keyboarding Online 8/24/2020 10/18/2020
2020FA Agriculture 71521 AGB-235 3 Introduction to Ag Markets Online 8/24/2020 10/18/2020
2020FA Business 71523 BCA-115 1 Internet Basics Online 8/24/2020 10/18/2020
2020FA Business 71524 BCA-120 1 Computer Orientation Online 8/24/2020 10/18/2020
2020FA Computer Science 71525 BCA-129 2 Basic Word Processing Online 8/24/2020 10/18/2020
2020FA Computer Science 71526 BCA-147 2 Basic Spreadsheets Online 8/24/2020 10/18/2020
2020FA Science 71527 BIO-105 4 Introductory Biology Online 8/24/2020 10/18/2020
2020FA Science 71528 BIO-163 4 Essentials of Anatomy and Phys Online 8/24/2020 10/18/2020
2020FA Business 71529 BUS-102 3 Introduction to Business Online 8/24/2020 10/18/2020
2020FA Business 71531 BUS-150 3 E-Commerce Online 8/24/2020 10/18/2020
2020FA Business 71532 BUS-167 1 Leadership and Professionalism Online 8/24/2020 10/18/2020
2020FA Business 71533 BUS-180 3 Business Ethics Online 8/24/2020 10/18/2020
2020FA Business 71534 BUS-185 3 Business Law I Online 8/24/2020 10/18/2020
2020FA Business 71535 BUS-186 3 Business Law II Online 8/24/2020 10/18/2020
2020FA Science 71536 CHM-122 4 Intro to General Chemistry Online 8/24/2020 10/18/2020
2020FA Computer Science 71537 CSC-110 3 Introduction to Computers Online 8/24/2020 10/18/2020
2020FA Education 71538 EDU-235 3 Children's Literature Online 8/24/2020 10/18/2020
2020FA Science 71539 ENV-111 4 Environmental Science Online 8/24/2020 10/18/2020
2020FA Humanities 71540 FLS-141 4 Elementary Spanish I Online 8/24/2020 10/18/2020
2020FA Humanities 71541 FLS-142 4 Elementary Spanish II Online 8/24/2020 10/18/2020
2020FA Social Science 71542 HIS-151 3 U.S. History to 1877 Online 8/24/2020 10/18/2020
2020FA Social Science 71543 HIS-152 3 U.S.History Since 1877 Online 8/24/2020 10/18/2020
2020FA Health 71544 HIT-120 1 Pharmacology for HIT Online 8/24/2020 10/18/2020
2020FA Health 71545 HIT-596 2 Hit Practicum I Online 8/24/2020 10/18/2020
2020FA Health 71546 HSC-105 1 Intro to Health Occupations Online 8/24/2020 10/18/2020
2020FA Health 71548 HSC-113 2 Medical Terminology Online 8/24/2020 10/18/2020
2020FA Health 71549 HSC-114 3 Medical Terminology Online 8/24/2020 10/18/2020
2020FA Humanities 71551 LIT-101 3 Introduction to Literature Online 8/24/2020 10/18/2020
2020FA Humanities 71554 PHI-101 3 Introduction to Philosophy Online 8/24/2020 10/18/2020
2020FA Humanities 71555 PHI-105 3 Intro to Ethics Online 8/24/2020 10/18/2020
2020FA Student Development 71556 SDV-108 1 The College Experience Online 8/24/2020 10/18/2020
2020FA Social Science 71557 SOC-120 3 Marriage and Family Online 8/24/2020 10/18/2020
2020FA Social Science 71558 POL-111 3 American National Government Online 9/21/2020 12/13/2020
2020FA Communications 71559 ENG-105 3 Composition I Online 9/21/2020 12/13/2020
2020FA Business 71560 MKT-110 3 Principles of Marketing Online 9/21/2020 12/13/2020
2020FA Social Science 71561 SOC-110 3 Introduction to Sociology Online 9/21/2020 12/13/2020
2020FA Communications 71562 ENG-106 3 Composition II Online 9/21/2020 12/13/2020
2020FA Humanities 71563 HIS-110 3 West. Civ: Ancient to Erly Mod Online 9/21/2020 12/13/2020
2020FA Humanities 71564 REL-101 3 Survey of World Religions Online 9/21/2020 12/13/2020
2020FA Social Science 71565 CRJ-100 3 Intro to Criminal Justice Online 9/21/2020 12/13/2020
2020FA Business 71566 MGT-101 3 Principles of Management Online 9/21/2020 12/13/2020
2020FA Humanities 71567 MUS-100 3 Music Appreciation Online 9/21/2020 12/13/2020
2020FA Social Science 71568 PSY-111 3 Introduction to Psychology Online 9/21/2020 12/13/2020
2020FA Humanities 71569 ART-101 3 Art Appreciation Online 9/21/2020 12/13/2020
2020FA Social Science 71570 PSY-241 3 Abnormal Psychology Online 9/21/2020 12/13/2020
2020FA Social Science 71571 PSY-121 3 Developmental Psychology Online 9/21/2020 12/13/2020
2020FA Humanities 71572 GEO-121 3 World Regional Geography Online 9/21/2020 12/13/2020
2020FA Science 71573 BIO-168 4 Human Anatomy & Physiology I Online 9/21/2020 12/13/2020
2020FA Science 71574 BIO-173 4 Human Anatomy & Physiology II Online 9/21/2020 12/13/2020
2020FA Communications 71575 SPC-112 3 Public Speaking Online 9/21/2020 12/13/2020
2020FA Science 71576 BIO-151 3 Nutrition Online 9/21/2020 12/13/2020
2020FA Science 71577 BIO-186 4 Microbiology Online 9/21/2020 12/13/2020
2020FA Mathematics 71578 MAT-110 3 Math for Liberal Arts Online 9/21/2020 12/13/2020
2020FA Mathematics 71579 MAT-121 4 College Algebra Online 9/21/2020 12/13/2020
2020FA Mathematics 71580 MAT-156 3 Statistics Online 9/21/2020 12/13/2020
2020FA Mathematics 71581 MAT-772 3 Applied Math Online 9/21/2020 12/13/2020
2020FA Business 71585 BUS-102 3 Introduction to Business Online 9/21/2020 12/13/2020
2020FA Business 71586 BUS-185 3 Business Law I Online 9/21/2020 12/13/2020
2020FA Computer Science 71587 CSC-110 3 Introduction to Computers Online 9/21/2020 12/13/2020
2020FA Education 71588 EDU-235 3 Children's Literature Online 9/21/2020 12/13/2020
2020FA Science 71590 ENV-111 4 Environmental Science Online 9/21/2020 12/13/2020
2020FA Humanities 71591 FLS-141 4 Elementary Spanish I Online 9/21/2020 12/13/2020
2020FA Humanities 71592 FLS-142 4 Elementary Spanish II Online 9/21/2020 12/13/2020
2020FA Social Science 71593 HIS-151 3 U.S. History to 1877 Online 9/21/2020 12/13/2020
2020FA Social Science 71594 HIS-152 3 U.S.History Since 1877 Online 9/21/2020 12/13/2020
2020FA Health 71596 HIT-270 2 Icd-10 Procedural Coding Online 9/21/2020 12/13/2020
2020FA Health 71597 HSC-113 2 Medical Terminology Online 9/21/2020 12/13/2020
2020FA Health 71598 HSC-114 3 Medical Terminology Online 9/21/2020 12/13/2020
2020FA Humanities 71599 HUM-110 3 Changes and Choices Online 9/21/2020 12/13/2020
2020FA Humanities 71601 LIT-101 3 Introduction to Literature Online 9/21/2020 12/13/2020
2020FA Humanities 71604 PHI-101 3 Introduction to Philosophy Online 9/21/2020 12/13/2020
2020FA Humanities 71605 PHI-105 3 Intro to Ethics Online 9/21/2020 12/13/2020
2020FA Social Science 71606 SOC-115 3 Social Problems Online 9/21/2020 12/13/2020
2020FA Social Science 71607 SOC-120 3 Marriage and Family Online 9/21/2020 12/13/2020
2020FA Communications 71609 SPC-122 3 Interpersonal Communication Online 9/21/2020 12/13/2020
2020FA Social Science 71610 POL-111 3 American National Government Online 10/19/2020 12/13/2020
2020FA Communications 71611 ENG-105 3 Composition I Online 10/19/2020 12/13/2020
2020FA Business 71612 MKT-110 3 Principles of Marketing Online 10/19/2020 12/13/2020
2020FA Social Science 71613 SOC-110 3 Introduction to Sociology Online 10/19/2020 12/13/2020
2020FA Communications 71614 ENG-106 3 Composition II Online 10/19/2020 12/13/2020
2020FA Humanities 71615 HIS-110 3 West. Civ: Ancient to Erly Mod Online 10/19/2020 12/13/2020
2020FA Humanities 71616 HIS-111 3 Western Civ: Early Mod to Pres Online 10/19/2020 12/13/2020
2020FA Business 71617 BUS-161 3 Human Relations Online 10/19/2020 12/13/2020
2020FA Business 71618 MGT-101 3 Principles of Management Online 10/19/2020 12/13/2020
2020FA Humanities 71619 MUS-100 3 Music Appreciation Online 10/19/2020 12/13/2020
2020FA Social Science 71620 PSY-111 3 Introduction to Psychology Online 10/19/2020 12/13/2020
2020FA Humanities 71621 ART-101 3 Art Appreciation Online 10/19/2020 12/13/2020
2020FA Social Science 71622 PSY-241 3 Abnormal Psychology Online 10/19/2020 12/13/2020
2020FA Social Science 71623 PSY-121 3 Developmental Psychology Online 10/19/2020 12/13/2020
2020FA Humanities 71624 GEO-121 3 World Regional Geography Online 10/19/2020 12/13/2020
2020FA Science 71625 BIO-168 4 Human Anatomy & Physiology I Online 10/19/2020 12/13/2020
2020FA Science 71626 BIO-173 4 Human Anatomy & Physiology II Online 10/19/2020 12/13/2020
2020FA Communications 71628 SPC-112 3 Public Speaking Online 10/19/2020 12/13/2020
2020FA Science 71629 BIO-151 3 Nutrition Online 10/19/2020 12/13/2020
2020FA Social Science 71630 ECN-120 3 Principles of Macroeconomics Online 10/19/2020 12/13/2020
2020FA Social Science 71631 ECN-130 3 Principles of Microeconomics Online 10/19/2020 12/13/2020
2020FA Science 71632 BIO-186 4 Microbiology Online 10/19/2020 12/13/2020
2020FA Mathematics 71633 MAT-110 3 Math for Liberal Arts Online 10/19/2020 12/13/2020
2020FA Mathematics 71634 MAT-121 4 College Algebra Online 10/19/2020 12/13/2020
2020FA Mathematics 71635 MAT-156 3 Statistics Online 10/19/2020 12/13/2020
2020FA Business 71636 ACC-131 4 Principles of Accounting I Online 10/19/2020 12/13/2020
2020FA Business 71637 ACC-146 3 Managerial Accounting Online 10/19/2020 12/13/2020
2020FA Agriculture 71640 AGA-158 3 Soil Fertility Online 10/19/2020 12/13/2020
2020FA Agriculture 71641 AGB-330 3 Farm Business Management Online 10/19/2020 12/13/2020
2020FA Agriculture 71642 AGB-336 3 Agriculture Selling Online 10/19/2020 12/13/2020
2020FA Agriculture 71643 AGB-437 3 Commodity Marketing Online 10/19/2020 12/13/2020
2020FA Computer Science 71645 BCA-130 2 Advanced Word Processing Online 10/19/2020 12/13/2020
2020FA Business 71646 BCA-148 2 Advanced Spreadsheets Online 10/19/2020 12/13/2020
2020FA Business 71647 BCA-165 2 Basic Databases Online 10/19/2020 12/13/2020
2020FA Science 71648 BIO-105 4 Introductory Biology Online 10/19/2020 12/13/2020
2020FA Science 71649 BIO-114 4 General Biology IA Online 10/19/2020 12/13/2020
2020FA Science 71650 BIO-163 4 Essentials of Anatomy and Phys Online 10/19/2020 12/13/2020
2020FA Business 71651 BUS-102 3 Introduction to Business Online 10/19/2020 12/13/2020
2020FA Business 71652 BUS-150 3 E-Commerce Online 10/19/2020 12/13/2020
2020FA Business 71654 BUS-180 3 Business Ethics Online 10/19/2020 12/13/2020
2020FA Business 71655 BUS-185 3 Business Law I Online 10/19/2020 12/13/2020
2020FA Business 71656 BUS-186 3 Business Law II Online 10/19/2020 12/13/2020
2020FA Science 71657 CHM-122 4 Intro to General Chemistry Online 10/19/2020 12/13/2020
2020FA Science 71658 CHM-132 4 Intro to Organic & Biochem Online 10/19/2020 12/13/2020
2020FA Computer Science 71659 CSC-110 3 Introduction to Computers Online 10/19/2020 12/13/2020
2020FA Education 71660 EDU-235 3 Children's Literature Online 10/19/2020 12/13/2020
2020FA Science 71661 ENV-111 4 Environmental Science Online 10/19/2020 12/13/2020
2020FA Humanities 71662 FLS-141 4 Elementary Spanish I Online 10/19/2020 12/13/2020
2020FA Humanities 71663 FLS-142 4 Elementary Spanish II Online 10/19/2020 12/13/2020
2020FA Humanities 71664 GLS-100 3 Contemporary World Issues Online 10/19/2020 12/13/2020
2020FA Social Science 71665 HIS-151 3 U.S. History to 1877 Online 10/19/2020 12/13/2020
2020FA Social Science 71666 HIS-152 3 U.S.History Since 1877 Online 10/19/2020 12/13/2020
2020FA Health 71667 HIT-120 1 Pharmacology for HIT Online 10/19/2020 12/13/2020
2020FA Health 71668 HIT-598 2 H I T Practicum II Online 10/19/2020 12/13/2020
2020FA Health 71669 HIT-946 1 Seminar Online 10/19/2020 12/13/2020
2020FA Health 71670 HSC-113 2 Medical Terminology Online 10/19/2020 12/13/2020
2020FA Health 71671 HSC-114 3 Medical Terminology Online 10/19/2020 12/13/2020
2020FA Humanities 71672 LIT-101 3 Introduction to Literature Online 10/19/2020 12/13/2020
2020FA Business 71678 MGT-165 3 Principles of Quality Online 10/19/2020 12/13/2020
2020FA Humanities 71680 PHI-101 3 Introduction to Philosophy Online 10/19/2020 12/13/2020
2020FA Humanities 71681 PHI-105 3 Intro to Ethics Online 10/19/2020 12/13/2020
2020FA Student Development 71682 SDV-108 1 The College Experience Online 10/19/2020 12/13/2020
2020FA Social Science 71683 SOC-120 3 Marriage and Family Online 10/19/2020 12/13/2020
2020FA Computer Science 71689 NET-605 3 Network Server Admin & Securit M W F On-Campus 8/19/2020 12/18/2020 12:20PM 1:15PM Bowlsby, Jared
2020FA Computer Science 71690 NET-606 3 Security Analysis & Network Th M W F On-Campus 8/19/2020 12/18/2020 2:30PM 3:25PM Bowlsby, Jared
2020FA Health 71691 RAD-103 1 Introduction to Radiologic Tec W On-Campus 8/19/2020 12/18/2020 1:25PM 2:20PM Cowan, Mary
2020FA Coaching 71732 PEC-120 1 Body Structure and Function Online 10/7/2020 10/28/2020
2020FA Coaching 71733 PEC-126 2 Athletic Injury Prevention Online 10/29/2020 12/11/2020
2020FA Mechanics 71769 AUT-106 2 Intro to Automotive Technology M T W TH F On-Campus 8/19/2020 9/9/2020 12:40PM 3:15PM Gaard, James
2020FA Mechanics 71770 AUT-605 7 Basic Automotive Electrical Sy M T W TH F On-Campus 9/10/2020 12/18/2020 12:40PM 3:15PM Gaard, James
2020FA Mechanics 71773 AUT-106 2 Intro to Automotive Technology M T W TH F On-Campus 8/19/2020 9/1/2020 6:55AM 11:50AM
2020FA Mechanics 71774 AUT-605 7 Basic Automotive Electrical Sy M T W TH F On-Campus 9/2/2020 10/30/2020 6:55AM 11:50AM Steinle, Mark
2020FA Mechanics 71776 AUT-813 6 Auto Engine Performance II M T W TH F On-Campus 9/24/2020 11/3/2020 6:55AM 11:50AM Ball, Charles
2020FA Mechanics 71777 AUT-846 6 Automotive Electronics M T W TH F On-Campus 11/4/2020 12/18/2020 6:55AM 11:50AM Ball, Charles
2020FA Technologies 71778 MFG-146 3 Automated Manufacturing System M T W TH F On-Campus 8/19/2020 12/18/2020 8:00AM 8:55AM Radtke, Willis
2020FA Technologies 71779 CAD-101 3 Introduction to CAD M T W TH F Other 8/19/2020 10/14/2020 9:05AM 11:05AM Steffen, Ryan
2020FA Technologies 71780 MFG-429 4 Tooling Design and Build M T W TH F Other 10/19/2020 12/18/2020 9:05AM 12:10PM Radtke, Willis
2020FA Mechanics 71781 DSL-101 1 Diesel Shop Safety M T W TH F On-Campus 8/19/2020 8/21/2020 6:55AM 12:05PM Kramer, Kenneth
2020FA Mechanics 71782 DSL-154 4 Introduction to Equipment Serv M T W TH F On-Campus 8/24/2020 9/23/2020 6:55AM 11:50AM Kramer, Kenneth
2020FA Mechanics 71783 DSL-152 6 Heavy Duty Electrical Systems M T W TH F On-Campus 9/24/2020 11/13/2020 6:55AM 11:50AM Kramer, Kenneth
2020FA Mechanics 71784 DSL-324 4 Introduction to Diesel M T W TH F On-Campus 11/16/2020 12/18/2020 6:55AM 11:50AM Kramer, Kenneth
2020FA Mechanics 71785 DSL-159 5 Power Trains/Drive Lines & Sus M T W TH F On-Campus 8/19/2020 12/18/2020 6:55AM 7:50AM Engelkes, Nathanel
2020FA Applied Technologies 71786 DSL-810 10 Truck & Diesel Lab I M T W TH F On-Campus 8/19/2020 12/18/2020 8:00AM 11:45AM Engelkes, Nathanel
2020FA Technologies 71794 ELE-240 3 Advanced P L C Applications M T W TH F Other 8/19/2020 10/14/2020 9:05AM 11:05AM Bohnet, Mark
2020FA Technologies 71795 ELT-842 5 Programming Electronic Control M T W TH F Other 8/19/2020 10/14/2020 12:20PM 3:25PM Louters, Philip
2020FA Technologies 71796 ELE-241 3 HMI & Motion Control Fund. M T W TH F Other 10/19/2020 12/18/2020 9:05AM 11:05AM Bohnet, Mark
2020FA Technologies 71797 ELT-330 5 Interfacing Digital Electronic M T W TH F Other 10/19/2020 12/18/2020 12:00PM 3:25PM Louters, Philip
2020FA Technologies 71798 MFG-122 3 Machine Trade Printreading I M T W TH F Other 8/19/2020 10/14/2020 6:55AM 7:50AM Steffen, Ryan
2020FA Technologies 71799 MFG-150 2 Applied Math for Manufacturing M T W TH F Other 8/19/2020 10/14/2020 8:00AM 8:55AM Steffen, Ryan
2020FA Technologies 71800 MFG-191 5 Manufacturing Processes M T W TH F Other 8/19/2020 10/14/2020 9:05AM 12:10PM Radtke, Willis
2020FA Technologies 71801 MFG-185 2 OSHA/Shop Safety M T TH F Other 10/19/2020 12/18/2020 6:55AM 7:50AM Steffen, Ryan
2020FA Technologies 71802 MFG-194 2 Inspection Processes M T W TH F Other 10/19/2020 12/18/2020 8:00AM 8:55AM Steffen, Ryan
2020FA Technologies 71803 CAD-167 5 Introduction to Parametric Mod M T W TH F Other 10/19/2020 12/18/2020 9:05AM 11:05AM Steffen, Ryan
2020FA Applied Technologies 71804 HEQ-131 3 Safety and Intro to H.E. M T W TH F Other 8/19/2020 10/14/2020 9:05AM 11:05AM Koenen, Andrew
2020FA Applied Technologies 71805 HEQ-172 3 CDL-A & DOT Regulations and L M T W TH F On-Campus 8/19/2020 12/18/2020 12:20PM 1:15PM Koenen, Andrew
2020FA Applied Technologies 71806 HEQ-160 3 Equipment Lubrication & Maint M T W TH F Other 10/19/2020 12/18/2020 9:05AM 11:05AM Koenen, Andrew
2020FA Applied Technologies 71807 HEQ-257 2 Surveying II M T W TH On-Campus 8/19/2020 12/18/2020 6:55AM 8:15AM Starn, Eric
2020FA Applied Technologies 71808 HEQ-263 5 Equip Recondition Theory II M T W On-Campus 8/19/2020 12/18/2020 8:15AM 9:35AM Starn, Eric
2020FA Applied Technologies 71809 HEQ-158 7 Equipment Oper & Main III M T W On-Campus 8/19/2020 12/18/2020 9:35AM 11:15AM Starn, Eric
M T W On-Campus 8/19/2020 12/18/2020 12:20PM 3:00PM Starn, Eric
2020FA Applied Technologies 71811 HEQ-264 5 Equipment Recondition Lab II TH On-Campus 8/19/2020 12/18/2020 8:05AM 12:15PM Starn, Eric
M T W On-Campus 8/19/2020 12/18/2020 3:00PM 5:10PM Starn, Eric
2020FA Applied Technologies 71812 ELE-108 4 Residential Blueprint Reading M T W TH F On-Campus 8/19/2020 12/18/2020 10:10AM 11:05AM Klein, Troy
2020FA Applied Technologies 71813 ELE-120 4 Fundamentals of Electricity-Dc M T W TH F On-Campus 8/19/2020 12/18/2020 11:15AM 12:10PM Klein, Troy
2020FA Applied Technologies 71814 ELE-160 6 Residential Wiring Theory/Lab M T W TH F On-Campus 8/19/2020 12/18/2020 1:25PM 3:25PM Klein, Troy; Krull, Byron
2020FA Applied Technologies 71815 ELE-150 2 National Electrical Code M T W TH F Other 10/19/2020 12/18/2020 8:00AM 8:55AM Klein, Troy
2020FA Applied Technologies 71816 ELE-168 6 Industrial Wiring Theory /Lab M T W TH F On-Campus 8/19/2020 12/18/2020 8:00AM 10:00AM Krull, Byron
2020FA Technologies 71817 ELE-199 5 Motor Controls Principles M T W TH F Other 8/19/2020 10/14/2020 12:20PM 3:25PM Bohnet, Mark
2020FA Technologies 71818 ELE-211 5 Programmable Controllers M T W TH F Other 10/19/2020 12/18/2020 12:20PM 3:25PM Bohnet, Mark
2020FA Technologies 71819 ELT-182 3 Introduction to Electronics M T W TH F Other 8/19/2020 10/14/2020 8:00AM 10:00AM Louters, Philip
2020FA Applied Technologies 71820 ELE-170 2 Power Distribution M T W TH F Other 8/19/2020 10/14/2020 10:10AM 11:05AM Louters, Philip
2020FA Applied Technologies 71821 ELE-154 5 Codes and Standards M T W TH F On-Campus 8/19/2020 12/18/2020 11:15AM 12:10PM Krull, Byron
2020FA Technologies 71822 ELT-183 3 Electronic Control M T W TH F Other 10/19/2020 12/18/2020 8:00AM 10:00AM Louters, Philip
2020FA Applied Technologies 71823 ELE-191 2 Motor Theory M T W TH F Other 10/19/2020 12/18/2020 10:10AM 11:05AM Louters, Philip
2020FA Applied Technologies 71824 ELE-120 4 Fundamentals of Electricity-Dc M T W TH F Other 8/19/2020 10/14/2020 9:05AM 11:05AM
2020FA Applied Technologies 71825 ELE-121 4 Fundamentals of Electricity-Ac M T W TH F Other 10/19/2020 12/18/2020 9:05AM 11:05AM
2020FA Applied Technologies 71826 ELT-645 10 Process Measurement M T W TH F Other 8/19/2020 10/14/2020 6:55AM 11:05AM Gaalswyk, Russell
M T W TH F Other 8/19/2020 10/14/2020 12:20PM 2:20PM Gaalswyk, Russell
2020FA Technologies 71827 EGT-801 6 Internship M T W TH F Other 10/19/2020 12/18/2020 6:55AM 3:25PM Gaalswyk, Russell
2020FA Applied Technologies 71828 PWL-170 4 Field Training I M T W TH F Other 8/19/2020 10/14/2020 8:00AM 11:05AM
2020FA Applied Technologies 71829 PWL-170 4 Field Training I M T W TH F Other 8/19/2020 10/14/2020 8:00AM 11:05AM
2020FA Applied Technologies 71830 PWL-168 2 DC Theory M T W TH F Other 8/19/2020 10/14/2020 12:20PM 1:15PM
2020FA Technologies 71831 PWL-189 2 Powerline Trade Fund I T TH Other 8/19/2020 10/14/2020 1:25PM 3:25PM
M W F Other 8/19/2020 10/14/2020 1:25PM 2:20PM
2020FA Applied Technologies 71832 PWL-172 4 Field Training II M T W TH F Other 10/19/2020 12/18/2020 8:00AM 11:05AM
2020FA Applied Technologies 71833 PWL-172 4 Field Training II M T W TH F Other 10/19/2020 12/18/2020 8:00AM 11:05AM
2020FA Applied Technologies 71834 PWL-169 2 AC Theory M T W TH F Other 10/19/2020 12/18/2020 12:20PM 1:15PM
2020FA Technologies 71835 PWL-190 2 Powerline Trade Fund II T TH Other 10/19/2020 12/18/2020 1:25PM 3:25PM
M W F Other 10/19/2020 12/18/2020 1:25PM 2:20PM
2020FA Applied Technologies 71836 PWL-169 2 AC Theory M T W TH F Other 8/19/2020 10/14/2020 8:45AM 9:40AM
2020FA Technologies 71837 PWL-190 2 Powerline Trade Fund II M T W TH F Other 8/19/2020 10/14/2020 9:50AM 11:05AM
2020FA Applied Technologies 71838 PWL-172 4 Field Training II M T W TH F Other 8/19/2020 10/14/2020 12:20PM 1:25PM
2020FA Applied Technologies 71839 PWL-172 4 Field Training II M T W TH F Other 8/19/2020 10/14/2020 12:20PM 1:25PM
2020FA Technologies 71840 PWL-191 4 Transformers & Connections M T W TH F Other 10/19/2020 12/18/2020 8:50AM 11:05AM
2020FA Applied Technologies 71841 PWL-174 4 Field Training III M T W TH F Other 10/19/2020 12/18/2020 12:20PM 3:35PM
2020FA Applied Technologies 71842 PWL-174 4 Field Training III M T W TH F Other 10/19/2020 12/18/2020 12:20PM 3:35PM
2020FA Mechanics 71844 WEL-120 2 Oxy Fuel Welding and Cutting M T W TH F Other 8/19/2020 10/14/2020 8:00AM 8:55AM Hoting, Robert
2020FA Mechanics 71845 WEL-186 4 Gmaw M T W TH F On-Campus 8/19/2020 10/14/2020 9:05AM 11:05AM Hoting, Robert
M T W TH F On-Campus 10/19/2020 12/18/2020 8:00AM 9:00AM Hoting, Robert
2020FA Applied Technologies 71846 WEL-152 3 Shielded Metal Arc Lab I M T W TH F Other 8/19/2020 10/14/2020 12:20PM 2:20PM Hoting, Robert
2020FA Mechanics 71847 WEL-308 4 Pipe Welding M T W TH F Other 10/19/2020 12/18/2020 9:10AM 12:10PM Hoting, Robert
2020FA Mechanics 71848 WEL-186 4 Gmaw M T W TH F On-Campus 8/19/2020 10/14/2020 9:05AM 10:00AM Hoting, Robert
M T W TH F On-Campus 10/19/2020 12/18/2020 8:00AM 10:00AM Hoting, Robert
2020FA Humanities 71871 ART-163 3 Sculpture On-Campus 8/19/2020 12/18/2020
2020FA Communications 71872 ENG-014 1 Mastery Writing On-Campus 8/19/2020 12/18/2020
2020FA Humanities 71873 ART-143 3 Painting On-Campus 8/19/2020 12/18/2020
2020FA Health 71877 ADN-704 5 ADN Nursing IIA TH Other 8/19/2020 10/14/2020 8:00AM 5:00PM
2020FA Computer Science 71945 NET-142 3 Network Essentials M T W TH On-Campus 8/19/2020 12/18/2020 1:25PM 2:20PM Bowlsby, Jared
2020FA Computer Science 71946 NET-303 3 Windows Workstation Operating M T W TH On-Campus 8/19/2020 12/18/2020 10:10AM 11:05AM Bowlsby, Jared
2020FA Emergency Services 71961 EMS-211 6.5 Emergency Medical Technician Hybrid 8/24/2020 12/18/2020 Miller, Kevin
2020FA Education 72009 EDU-220 3 HR for the Classroom Teacher Off-Campus 8/25/2020 12/22/2020
2020FA Education 72010 EDU-210 3 Foundations of Education Off-Campus 8/24/2020 12/22/2020
2020FA Humanities 72011 MUS-100 3 Music Appreciation Off-Campus 8/24/2020 12/22/2020
2020FA Communications 72012 SPC-112 3 Public Speaking Off-Campus 8/24/2020 12/22/2020
2020FA Mathematics 72013 MAT-156 3 Statistics Off-Campus 8/24/2020 12/22/2020
2020FA Agriculture 72015 AGC-420 3 Issues in Agriculture Off-Campus 8/24/2020 12/22/2020
2020FA Agriculture 72016 AGA-154 3 Fundamentals of Soil Science Off-Campus 8/24/2020 12/22/2020
2020FA Science 72017 ENV-111 4 Environmental Science Off-Campus 8/24/2020 12/22/2020
2020FA Science 72018 CHM-163 3 General Chemistry I Off-Campus 8/24/2020 12/23/2020
2020FA Science 72019 CHM-164 1 General Chemistry I Lab Off-Campus
2020FA Mathematics 72020 MAT-210 4 Calculus I Off-Campus 8/24/2020 12/23/2020
2020FA Social Science 72021 HIS-151 3 U.S. History to 1877 Off-Campus 8/24/2020 1/12/2021
2020FA Health 72022 HSC-172 3 Nurse Aid Off-Campus 8/24/2020 1/12/2021
2020FA Humanities 72024 MUS-100 3 Music Appreciation Off-Campus 8/24/2020 1/12/2021
2020FA Health 72025 HSC-172 3 Nurse Aid Off-Campus 8/19/2020 12/23/2020
2020FA Humanities 72026 LIT-101 3 Introduction to Literature Off-Campus 8/24/2020 12/22/2020
2020FA Communications 72027 ENG-105 3 Composition I Off-Campus 8/24/2020 12/22/2020
2020FA Agriculture 72028 AGB-235 3 Introduction to Ag Markets Off-Campus 8/24/2020 12/22/2020
2020FA Agriculture 72029 AGA-114 3 Principles of Agronomy Off-Campus 8/24/2020 12/22/2020
2020FA Health 72031 ADN-707 2 ADN Nursing IIB-Preceptor Other 10/19/2020 12/18/2020
2020FA Applied Technologies 72051 MFG-548 3 Fluid Power Other 10/19/2020 12/18/2020 Steffen, Ryan
2020FA Education 72071 EDU-210 3 Foundations of Education Off-Campus 8/24/2020 12/22/2020
2020FA Health 72179 HSC-172 3 Nurse Aid M TH On-Campus 8/24/2020 10/15/2020 4:00PM 9:30PM Paulsen, Julie
2020FA Health 72180 HSC-172 3 Nurse Aid M W Off-Campus 9/14/2020 11/2/2020 4:00PM 9:30PM Paulsen, Julie
2020FA Health 72181 HSC-172 3 Nurse Aid T TH On-Campus 9/29/2020 11/17/2020 4:00PM 9:30PM Paulsen, Julie
2020FA Health 72182 HSC-172 3 Nurse Aid M TH On-Campus 10/26/2020 12/17/2020 4:00PM 9:30PM Paulsen, Julie
2020FA Health 72262 HSC-172 3 Nurse Aid Off-Campus
2020FA Agriculture 72376 AGS-113 3 Survey of the Animal Industry Off-Campus 8/24/2020 12/22/2020
2020FA Business 72396 MGT-101 3 Principles of Management Online 8/24/2020 12/13/2020
2020FA Business 72404 ADM-157 3 Business English Online 8/24/2020 12/13/2020
2020FA Humanities 72405 PHI-101 3 Introduction to Philosophy Online 8/19/2020 12/18/2020
2020FA Mathematics 72414 MAT-156 3 Statistics Online 8/24/2020 12/13/2020
Tuition & Financial Aid